<?xml version="1.0" encoding="UTF-8" standalone="no" ?>
<gpx xmlns="http://www.topografix.com/GPX/1/1" xmlns:xsi="http://www.w3.org/2001/XMLSchema-instance" xsi:schemaLocation="http://www.topografix.com/GPX/1/1 http://www.topografix.com/GPX/1/1/gpx.xsd" version="1.1" creator="VisuGPX - https://www.visugpx.com">
  <metadata>
    <name>B1 18 Raccourcie</name>
  </metadata>
  <wpt lat="50.44219" lon="5.30053">
    <ele>235</ele>
    <name><![CDATA[Baratin]]></name>
    <type><![CDATA[restaurant]]></type>
  </wpt>
  <trk>
    <name><![CDATA[B1]]></name>
    <extensions>
      <line xmlns="http://www.topografix.com/GPX/gpx_style/0/2">
        <color>0000FF</color>
        <width>4</width>
          <extensions>
            <sens>1</sens>
          </extensions>
      </line>
    </extensions>
    <trkseg>
      <trkpt lat="50.62334" lon="5.44762">
        <ele>191</ele>
        <extensions>
          <visugpx:TrkExtension xmlns:visugpx="https://www.visugpx.com/editgpx/">
            <visugpx:node>1</visugpx:node>
            </visugpx:TrkExtension>
        </extensions>
      </trkpt>
      <trkpt lat="50.62331" lon="5.44816">
        <ele>187.9</ele>
        <extensions>
          <visugpx:TrkExtension xmlns:visugpx="https://www.visugpx.com/editgpx/">
            <visugpx:node>5</visugpx:node>
            </visugpx:TrkExtension>
        </extensions>
      </trkpt>
      <trkpt lat="50.62321" lon="5.4495">
        <ele>188</ele>
        <time>2016-10-11T03:48:04Z</time>
      </trkpt>
      <trkpt lat="50.6232" lon="5.45027">
        <ele>187</ele>
        <time>2016-10-11T03:50:04Z</time>
      </trkpt>
      <trkpt lat="50.62335" lon="5.45539">
        <ele>184.5</ele>
      </trkpt>
      <trkpt lat="50.62337" lon="5.45561">
        <ele>184.3</ele>
      </trkpt>
      <trkpt lat="50.62337" lon="5.45581">
        <ele>184</ele>
      </trkpt>
      <trkpt lat="50.62336" lon="5.45592">
        <ele>184</ele>
      </trkpt>
      <trkpt lat="50.6233" lon="5.45606">
        <ele>184</ele>
        <time>2016-10-11T03:58:04Z</time>
      </trkpt>
      <trkpt lat="50.62322" lon="5.45634">
        <ele>184</ele>
        <time>2016-10-11T04:00:04Z</time>
      </trkpt>
      <trkpt lat="50.62294" lon="5.45755">
        <ele>182</ele>
        <time>2016-10-11T04:02:04Z</time>
      </trkpt>
      <trkpt lat="50.62229" lon="5.45992">
        <ele>181</ele>
      </trkpt>
      <trkpt lat="50.62229" lon="5.45991">
        <ele>182</ele>
        <time>2016-10-09T17:10:04Z</time>
      </trkpt>
      <trkpt lat="50.62208" lon="5.45995">
        <ele>181</ele>
        <time>2016-10-09T17:12:04Z</time>
      </trkpt>
      <trkpt lat="50.62176" lon="5.46001">
        <ele>181</ele>
        <time>2016-10-09T17:14:04Z</time>
      </trkpt>
      <trkpt lat="50.6215" lon="5.46008">
        <ele>181</ele>
        <time>2016-10-09T17:16:04Z</time>
      </trkpt>
      <trkpt lat="50.62125" lon="5.46018">
        <ele>181</ele>
        <time>2016-10-09T17:18:04Z</time>
      </trkpt>
      <trkpt lat="50.62079" lon="5.46052">
        <ele>181</ele>
        <time>2016-10-09T17:20:04Z</time>
      </trkpt>
      <trkpt lat="50.61894" lon="5.46144">
        <ele>173</ele>
        <time>2016-10-09T17:22:04Z</time>
      </trkpt>
      <trkpt lat="50.61861" lon="5.46149">
        <ele>170</ele>
        <time>2016-10-09T17:24:04Z</time>
      </trkpt>
      <trkpt lat="50.61857" lon="5.46138">
        <ele>170</ele>
        <time>2016-10-09T17:26:04Z</time>
      </trkpt>
      <trkpt lat="50.61849" lon="5.46139">
        <ele>169</ele>
        <time>2016-10-09T17:28:04Z</time>
      </trkpt>
      <trkpt lat="50.61846" lon="5.4615">
        <ele>169</ele>
        <time>2016-10-09T17:30:04Z</time>
      </trkpt>
      <trkpt lat="50.61835" lon="5.46152">
        <ele>169</ele>
        <time>2016-10-09T17:32:04Z</time>
      </trkpt>
      <trkpt lat="50.61768" lon="5.46227">
        <ele>164</ele>
        <time>2016-10-09T17:34:04Z</time>
      </trkpt>
      <trkpt lat="50.61742" lon="5.46242">
        <ele>163</ele>
        <time>2016-10-09T17:36:04Z</time>
      </trkpt>
      <trkpt lat="50.61727" lon="5.46243">
        <ele>161</ele>
        <time>2016-10-09T17:38:04Z</time>
      </trkpt>
      <trkpt lat="50.61667" lon="5.46228">
        <ele>157</ele>
        <time>2016-10-09T17:40:04Z</time>
        <extensions>
          <visugpx:TrkExtension xmlns:visugpx="https://www.visugpx.com/editgpx/">
            <visugpx:node>106</visugpx:node>
            </visugpx:TrkExtension>
        </extensions>
      </trkpt>
      <trkpt lat="50.61649" lon="5.4623">
        <ele>155</ele>
        <time>2016-10-09T17:42:04Z</time>
      </trkpt>
      <trkpt lat="50.61632" lon="5.46245">
        <ele>154</ele>
        <time>2016-10-09T17:44:04Z</time>
      </trkpt>
      <trkpt lat="50.61619" lon="5.46267">
        <ele>152</ele>
        <time>2016-10-09T17:46:04Z</time>
      </trkpt>
      <trkpt lat="50.61529" lon="5.4647">
        <ele>145</ele>
        <time>2016-10-09T17:48:04Z</time>
      </trkpt>
      <trkpt lat="50.61405" lon="5.46147">
        <ele>134</ele>
        <time>2016-10-09T17:50:04Z</time>
      </trkpt>
      <trkpt lat="50.61391" lon="5.46124">
        <ele>133</ele>
        <time>2016-10-09T17:52:04Z</time>
      </trkpt>
      <trkpt lat="50.61345" lon="5.46079">
        <ele>129</ele>
        <time>2016-10-09T17:54:04Z</time>
      </trkpt>
      <trkpt lat="50.61307" lon="5.45995">
        <ele>122</ele>
        <time>2016-10-09T17:56:04Z</time>
      </trkpt>
      <trkpt lat="50.61296" lon="5.45982">
        <ele>123</ele>
        <time>2016-10-09T17:58:04Z</time>
      </trkpt>
      <trkpt lat="50.61282" lon="5.45972">
        <ele>123</ele>
        <time>2016-10-09T18:00:04Z</time>
      </trkpt>
      <trkpt lat="50.61208" lon="5.45965">
        <ele>122</ele>
        <time>2016-10-09T18:02:04Z</time>
      </trkpt>
      <trkpt lat="50.61191" lon="5.45954">
        <ele>122</ele>
        <time>2016-10-09T18:04:04Z</time>
      </trkpt>
      <trkpt lat="50.61176" lon="5.45939">
        <ele>121</ele>
        <time>2016-10-09T18:06:04Z</time>
      </trkpt>
      <trkpt lat="50.61165" lon="5.45917">
        <ele>120</ele>
        <time>2016-10-09T18:08:04Z</time>
      </trkpt>
      <trkpt lat="50.61155" lon="5.45879">
        <ele>118</ele>
        <time>2016-10-09T18:10:04Z</time>
      </trkpt>
      <trkpt lat="50.61095" lon="5.45838">
        <ele>113</ele>
        <time>2016-10-09T18:12:04Z</time>
      </trkpt>
      <trkpt lat="50.60987" lon="5.45718">
        <ele>111</ele>
        <time>2016-10-09T18:14:04Z</time>
      </trkpt>
      <trkpt lat="50.60967" lon="5.45701">
        <ele>110</ele>
        <time>2016-10-09T18:16:04Z</time>
      </trkpt>
      <trkpt lat="50.6094" lon="5.45677">
        <ele>108</ele>
        <time>2016-10-09T18:18:04Z</time>
      </trkpt>
      <trkpt lat="50.60913" lon="5.4563">
        <ele>108</ele>
        <time>2016-10-09T18:20:04Z</time>
      </trkpt>
      <trkpt lat="50.60855" lon="5.45573">
        <ele>110</ele>
        <time>2016-10-09T18:22:04Z</time>
      </trkpt>
      <trkpt lat="50.60821" lon="5.45529">
        <ele>113</ele>
        <time>2016-10-09T18:24:04Z</time>
      </trkpt>
      <trkpt lat="50.60773" lon="5.45524">
        <ele>115</ele>
        <time>2016-10-09T18:26:04Z</time>
      </trkpt>
      <trkpt lat="50.60729" lon="5.45532">
        <ele>116</ele>
        <time>2016-10-09T18:28:04Z</time>
      </trkpt>
      <trkpt lat="50.60641" lon="5.45574">
        <ele>116</ele>
        <time>2016-10-09T18:30:04Z</time>
      </trkpt>
      <trkpt lat="50.60475" lon="5.45585">
        <ele>110</ele>
        <time>2016-10-09T18:32:04Z</time>
      </trkpt>
      <trkpt lat="50.60364" lon="5.45632">
        <ele>104</ele>
        <time>2016-10-09T18:34:04Z</time>
      </trkpt>
      <trkpt lat="50.60332" lon="5.4564">
        <ele>102</ele>
        <time>2016-10-09T18:36:04Z</time>
      </trkpt>
      <trkpt lat="50.60294" lon="5.45661">
        <ele>100</ele>
        <time>2016-10-09T18:38:04Z</time>
      </trkpt>
      <trkpt lat="50.60287" lon="5.45669">
        <ele>100</ele>
        <time>2016-10-09T18:40:04Z</time>
      </trkpt>
      <trkpt lat="50.60212" lon="5.45688">
        <ele>101</ele>
        <time>2016-10-09T18:42:04Z</time>
      </trkpt>
      <trkpt lat="50.60156" lon="5.45725">
        <ele>101</ele>
        <time>2016-10-09T18:44:04Z</time>
      </trkpt>
      <trkpt lat="50.60138" lon="5.45748">
        <ele>101</ele>
        <time>2016-10-09T18:46:04Z</time>
      </trkpt>
      <trkpt lat="50.60106" lon="5.45803">
        <ele>97</ele>
        <time>2016-10-09T18:48:04Z</time>
      </trkpt>
      <trkpt lat="50.60078" lon="5.45872">
        <ele>92</ele>
        <time>2016-10-09T18:50:04Z</time>
      </trkpt>
      <trkpt lat="50.60071" lon="5.45894">
        <ele>93</ele>
        <time>2016-10-09T18:52:04Z</time>
      </trkpt>
      <trkpt lat="50.60063" lon="5.45942">
        <ele>91</ele>
        <time>2016-10-09T18:54:04Z</time>
      </trkpt>
      <trkpt lat="50.60059" lon="5.46016">
        <ele>88</ele>
        <time>2016-10-09T18:56:04Z</time>
      </trkpt>
      <trkpt lat="50.60049" lon="5.46018">
        <ele>89</ele>
        <time>2016-10-09T18:58:04Z</time>
      </trkpt>
      <trkpt lat="50.60056" lon="5.46039">
        <ele>89</ele>
        <time>2016-10-09T19:00:04Z</time>
      </trkpt>
      <trkpt lat="50.60059" lon="5.461">
        <ele>89</ele>
        <time>2016-10-09T19:02:04Z</time>
      </trkpt>
      <trkpt lat="50.60066" lon="5.46225">
        <ele>88</ele>
        <time>2016-10-09T19:04:04Z</time>
      </trkpt>
      <trkpt lat="50.6009" lon="5.46316">
        <ele>88</ele>
        <time>2016-10-09T19:06:04Z</time>
      </trkpt>
      <trkpt lat="50.60095" lon="5.46346">
        <ele>89</ele>
        <time>2016-10-09T19:08:04Z</time>
      </trkpt>
      <trkpt lat="50.60106" lon="5.46468">
        <ele>90</ele>
        <time>2016-10-09T19:10:04Z</time>
      </trkpt>
      <trkpt lat="50.60101" lon="5.46504">
        <ele>87</ele>
        <time>2016-10-09T19:12:04Z</time>
      </trkpt>
      <trkpt lat="50.60094" lon="5.46527">
        <ele>84</ele>
        <time>2016-10-09T19:14:04Z</time>
      </trkpt>
      <trkpt lat="50.60085" lon="5.46543">
        <ele>80</ele>
        <time>2016-10-09T19:16:04Z</time>
      </trkpt>
      <trkpt lat="50.60008" lon="5.46613">
        <ele>73</ele>
        <time>2016-10-09T19:18:04Z</time>
      </trkpt>
      <trkpt lat="50.59969" lon="5.4649">
        <ele>72</ele>
        <time>2016-10-09T19:20:04Z</time>
      </trkpt>
      <trkpt lat="50.59933" lon="5.46346">
        <ele>74</ele>
        <time>2016-10-09T19:22:04Z</time>
      </trkpt>
      <trkpt lat="50.59914" lon="5.46333">
        <ele>73</ele>
        <time>2016-10-09T19:24:04Z</time>
      </trkpt>
      <trkpt lat="50.59825" lon="5.46423">
        <ele>67</ele>
        <time>2016-10-09T19:26:04Z</time>
      </trkpt>
      <trkpt lat="50.59796" lon="5.46442">
        <ele>67</ele>
        <time>2016-10-09T19:28:04Z</time>
      </trkpt>
      <trkpt lat="50.59732" lon="5.46458">
        <ele>67</ele>
        <time>2016-10-09T19:30:04Z</time>
      </trkpt>
      <trkpt lat="50.59706" lon="5.46459">
        <ele>67</ele>
        <time>2016-10-09T19:32:04Z</time>
      </trkpt>
      <trkpt lat="50.59702" lon="5.46448">
        <ele>67</ele>
        <time>2016-10-09T19:34:04Z</time>
      </trkpt>
      <trkpt lat="50.59609" lon="5.46214">
        <ele>68</ele>
        <time>2016-10-09T19:36:04Z</time>
      </trkpt>
      <trkpt lat="50.59542" lon="5.4603">
        <ele>69</ele>
        <time>2016-10-09T19:38:04Z</time>
      </trkpt>
      <trkpt lat="50.59513" lon="5.4605">
        <ele>70</ele>
        <time>2016-10-09T19:40:04Z</time>
      </trkpt>
      <trkpt lat="50.5945" lon="5.46077">
        <ele>69</ele>
        <time>2016-10-09T19:42:04Z</time>
      </trkpt>
      <trkpt lat="50.59404" lon="5.46079">
        <ele>67</ele>
        <time>2016-10-09T19:44:04Z</time>
      </trkpt>
      <trkpt lat="50.59382" lon="5.46066">
        <ele>66</ele>
        <time>2016-10-09T19:46:04Z</time>
      </trkpt>
      <trkpt lat="50.59372" lon="5.4607">
        <ele>66</ele>
        <time>2016-10-09T19:48:04Z</time>
      </trkpt>
      <trkpt lat="50.59366" lon="5.46082">
        <ele>66</ele>
        <time>2016-10-09T19:50:04Z</time>
      </trkpt>
      <trkpt lat="50.59346" lon="5.46093">
        <ele>65</ele>
        <time>2016-10-09T19:52:04Z</time>
      </trkpt>
      <trkpt lat="50.59147" lon="5.46154">
        <ele>63</ele>
        <time>2016-10-09T19:54:04Z</time>
      </trkpt>
      <trkpt lat="50.59083" lon="5.46167">
        <ele>65</ele>
        <time>2016-10-09T19:56:04Z</time>
      </trkpt>
      <trkpt lat="50.5906" lon="5.46166">
        <ele>66</ele>
        <time>2016-10-09T19:58:04Z</time>
      </trkpt>
      <trkpt lat="50.59008" lon="5.46185">
        <ele>68</ele>
        <time>2016-10-09T20:00:04Z</time>
      </trkpt>
      <trkpt lat="50.58937" lon="5.46261">
        <ele>68</ele>
        <time>2016-10-09T20:02:04Z</time>
      </trkpt>
      <trkpt lat="50.58864" lon="5.46353">
        <ele>69</ele>
        <time>2016-10-09T20:04:04Z</time>
      </trkpt>
      <trkpt lat="50.58832" lon="5.46383">
        <ele>70</ele>
        <time>2016-10-09T20:06:04Z</time>
      </trkpt>
      <trkpt lat="50.58847" lon="5.46423">
        <ele>71</ele>
        <time>2016-10-09T20:08:04Z</time>
      </trkpt>
      <trkpt lat="50.58884" lon="5.46492">
        <ele>70</ele>
        <time>2016-10-09T20:10:04Z</time>
      </trkpt>
      <trkpt lat="50.58934" lon="5.46639">
        <ele>69</ele>
        <time>2016-10-09T20:12:04Z</time>
      </trkpt>
      <trkpt lat="50.58935" lon="5.46727">
        <ele>71</ele>
        <time>2016-10-09T20:14:04Z</time>
      </trkpt>
      <trkpt lat="50.58969" lon="5.46911">
        <ele>78</ele>
        <time>2016-10-09T20:16:04Z</time>
      </trkpt>
      <trkpt lat="50.58835" lon="5.46658">
        <ele>84</ele>
        <time>2016-10-09T20:18:04Z</time>
      </trkpt>
      <trkpt lat="50.58652" lon="5.4646">
        <ele>96</ele>
        <time>2016-10-09T20:20:04Z</time>
      </trkpt>
      <trkpt lat="50.58546" lon="5.46456">
        <ele>105</ele>
        <time>2016-10-09T20:22:04Z</time>
      </trkpt>
      <trkpt lat="50.58362" lon="5.46352">
        <ele>115</ele>
        <time>2016-10-09T20:24:04Z</time>
      </trkpt>
      <trkpt lat="50.58152" lon="5.46227">
        <ele>130</ele>
        <time>2016-10-09T20:26:04Z</time>
      </trkpt>
      <trkpt lat="50.58088" lon="5.46186">
        <ele>137</ele>
        <time>2016-10-09T20:28:04Z</time>
      </trkpt>
      <trkpt lat="50.57985" lon="5.4604">
        <ele>146</ele>
        <time>2016-10-09T20:30:04Z</time>
      </trkpt>
      <trkpt lat="50.57919" lon="5.45923">
        <ele>149</ele>
        <time>2016-10-09T20:32:04Z</time>
      </trkpt>
      <trkpt lat="50.57904" lon="5.45908">
        <ele>148</ele>
        <time>2016-10-09T20:34:04Z</time>
      </trkpt>
      <trkpt lat="50.57886" lon="5.45899">
        <ele>148</ele>
        <time>2016-10-09T20:36:04Z</time>
      </trkpt>
      <trkpt lat="50.57853" lon="5.45899">
        <ele>151</ele>
        <time>2016-10-09T20:38:04Z</time>
      </trkpt>
      <trkpt lat="50.57785" lon="5.4593">
        <ele>160</ele>
        <time>2016-10-09T20:40:04Z</time>
      </trkpt>
      <trkpt lat="50.57748" lon="5.45954">
        <ele>163</ele>
        <time>2016-10-09T20:42:04Z</time>
      </trkpt>
      <trkpt lat="50.57737" lon="5.45967">
        <ele>165</ele>
        <time>2016-10-09T20:44:04Z</time>
      </trkpt>
      <trkpt lat="50.57731" lon="5.45987">
        <ele>166</ele>
        <time>2016-10-09T20:46:04Z</time>
      </trkpt>
      <trkpt lat="50.57727" lon="5.46046">
        <ele>171</ele>
        <time>2016-10-09T20:48:04Z</time>
      </trkpt>
      <trkpt lat="50.57716" lon="5.46063">
        <ele>173</ele>
        <time>2016-10-09T20:50:04Z</time>
      </trkpt>
      <trkpt lat="50.57698" lon="5.46067">
        <ele>174</ele>
        <time>2016-10-09T20:52:04Z</time>
      </trkpt>
      <trkpt lat="50.57688" lon="5.46064">
        <ele>175</ele>
        <time>2016-10-09T20:54:04Z</time>
      </trkpt>
      <trkpt lat="50.57671" lon="5.46049">
        <ele>175</ele>
        <time>2016-10-09T20:56:04Z</time>
      </trkpt>
      <trkpt lat="50.57603" lon="5.45947">
        <ele>177</ele>
        <time>2016-10-09T20:58:04Z</time>
      </trkpt>
      <trkpt lat="50.57581" lon="5.45925">
        <ele>178</ele>
        <time>2016-10-09T21:00:04Z</time>
      </trkpt>
      <trkpt lat="50.57568" lon="5.45919">
        <ele>179</ele>
        <time>2016-10-09T21:02:04Z</time>
      </trkpt>
      <trkpt lat="50.57524" lon="5.45917">
        <ele>183</ele>
        <time>2016-10-09T21:04:04Z</time>
      </trkpt>
      <trkpt lat="50.57359" lon="5.45952">
        <ele>195</ele>
        <time>2016-10-09T21:06:04Z</time>
      </trkpt>
      <trkpt lat="50.57305" lon="5.45949">
        <ele>198</ele>
        <time>2016-10-09T21:08:04Z</time>
      </trkpt>
      <trkpt lat="50.57256" lon="5.45934">
        <ele>201</ele>
        <time>2016-10-09T21:10:04Z</time>
      </trkpt>
      <trkpt lat="50.57194" lon="5.45905">
        <ele>205</ele>
        <time>2016-10-09T21:12:04Z</time>
      </trkpt>
      <trkpt lat="50.57031" lon="5.45775">
        <ele>211</ele>
        <time>2016-10-09T21:14:04Z</time>
      </trkpt>
      <trkpt lat="50.57004" lon="5.45761">
        <ele>211</ele>
        <time>2016-10-09T21:16:04Z</time>
      </trkpt>
      <trkpt lat="50.56983" lon="5.45757">
        <ele>212</ele>
        <time>2016-10-09T21:18:04Z</time>
      </trkpt>
      <trkpt lat="50.56917" lon="5.45765">
        <ele>214</ele>
        <time>2016-10-09T21:20:04Z</time>
      </trkpt>
      <trkpt lat="50.56697" lon="5.45825">
        <ele>223</ele>
        <time>2016-10-09T21:22:04Z</time>
      </trkpt>
      <trkpt lat="50.56647" lon="5.45835">
        <ele>225</ele>
        <time>2016-10-09T21:24:04Z</time>
      </trkpt>
      <trkpt lat="50.56609" lon="5.45834">
        <ele>226</ele>
        <time>2016-10-09T21:26:04Z</time>
      </trkpt>
      <trkpt lat="50.56559" lon="5.45809">
        <ele>226</ele>
        <time>2016-10-09T21:28:04Z</time>
      </trkpt>
      <trkpt lat="50.5637" lon="5.45679">
        <ele>228</ele>
        <time>2016-10-09T21:30:04Z</time>
      </trkpt>
      <trkpt lat="50.55786" lon="5.45306">
        <ele>235</ele>
        <time>2016-10-09T21:32:04Z</time>
      </trkpt>
      <trkpt lat="50.55347" lon="5.45132">
        <ele>233</ele>
        <time>2016-10-09T21:34:04Z</time>
      </trkpt>
      <trkpt lat="50.55244" lon="5.45119">
        <ele>228</ele>
        <time>2016-10-09T21:36:04Z</time>
      </trkpt>
      <trkpt lat="50.5524" lon="5.45164">
        <ele>227</ele>
        <time>2016-10-09T21:38:04Z</time>
      </trkpt>
      <trkpt lat="50.55233" lon="5.45173">
        <ele>227</ele>
        <time>2016-10-09T21:40:04Z</time>
      </trkpt>
      <trkpt lat="50.55157" lon="5.45217">
        <ele>223</ele>
        <time>2016-10-09T21:42:04Z</time>
      </trkpt>
      <trkpt lat="50.55127" lon="5.45227">
        <ele>221</ele>
        <time>2016-10-09T21:44:04Z</time>
      </trkpt>
      <trkpt lat="50.55067" lon="5.45219">
        <ele>217</ele>
        <time>2016-10-09T21:46:04Z</time>
      </trkpt>
      <trkpt lat="50.55055" lon="5.45222">
        <ele>216</ele>
        <time>2016-10-09T21:48:04Z</time>
      </trkpt>
      <trkpt lat="50.5504" lon="5.45243">
        <ele>215</ele>
        <time>2016-10-09T21:50:04Z</time>
      </trkpt>
      <trkpt lat="50.54739" lon="5.45519">
        <ele>223</ele>
        <time>2016-10-09T21:52:04Z</time>
      </trkpt>
      <trkpt lat="50.54553" lon="5.45682">
        <ele>237</ele>
        <time>2016-10-09T21:54:04Z</time>
      </trkpt>
      <trkpt lat="50.54247" lon="5.45962">
        <ele>252</ele>
        <time>2016-10-09T21:56:04Z</time>
      </trkpt>
      <trkpt lat="50.5418" lon="5.46014">
        <ele>253</ele>
        <time>2016-10-09T21:58:04Z</time>
      </trkpt>
      <trkpt lat="50.54154" lon="5.46045">
        <ele>253</ele>
        <time>2016-10-09T22:00:04Z</time>
      </trkpt>
      <trkpt lat="50.5412" lon="5.46129">
        <ele>254</ele>
        <time>2016-10-09T22:02:04Z</time>
      </trkpt>
      <trkpt lat="50.54113" lon="5.46132">
        <ele>255</ele>
        <time>2016-10-09T22:04:04Z</time>
      </trkpt>
      <trkpt lat="50.54075" lon="5.46191">
        <ele>255</ele>
        <time>2016-10-09T22:06:04Z</time>
      </trkpt>
      <trkpt lat="50.5406" lon="5.46228">
        <ele>255</ele>
        <time>2016-10-09T22:08:04Z</time>
      </trkpt>
      <trkpt lat="50.54055" lon="5.46257">
        <ele>255</ele>
        <time>2016-10-09T22:10:04Z</time>
      </trkpt>
      <trkpt lat="50.54057" lon="5.46269">
        <ele>255</ele>
        <time>2016-10-09T22:12:04Z</time>
      </trkpt>
      <trkpt lat="50.54048" lon="5.4636">
        <ele>255</ele>
        <time>2016-10-09T22:14:04Z</time>
      </trkpt>
      <trkpt lat="50.53998" lon="5.46555">
        <ele>257</ele>
        <time>2016-10-09T22:16:04Z</time>
      </trkpt>
      <trkpt lat="50.53962" lon="5.4675">
        <ele>262</ele>
        <time>2016-10-09T22:18:04Z</time>
      </trkpt>
      <trkpt lat="50.53894" lon="5.4717">
        <ele>270</ele>
        <time>2016-10-09T22:20:04Z</time>
      </trkpt>
      <trkpt lat="50.53882" lon="5.47234">
        <ele>270</ele>
        <time>2016-10-09T22:22:04Z</time>
      </trkpt>
      <trkpt lat="50.53856" lon="5.47313">
        <ele>269</ele>
        <time>2016-10-09T22:24:04Z</time>
      </trkpt>
      <trkpt lat="50.53846" lon="5.47362">
        <ele>268</ele>
        <time>2016-10-09T22:26:04Z</time>
        <extensions>
          <visugpx:TrkExtension xmlns:visugpx="https://www.visugpx.com/editgpx/">
            <visugpx:node>7</visugpx:node>
            </visugpx:TrkExtension>
        </extensions>
      </trkpt>
      <trkpt lat="50.53834" lon="5.47398">
        <ele>268</ele>
        <extensions>
          <visugpx:TrkExtension xmlns:visugpx="https://www.visugpx.com/editgpx/">
            <visugpx:node>6</visugpx:node>
            </visugpx:TrkExtension>
        </extensions>
      </trkpt>
      <trkpt lat="50.53838" lon="5.47409">
        <ele>268</ele>
      </trkpt>
      <trkpt lat="50.53837" lon="5.47413">
        <ele>268</ele>
      </trkpt>
      <trkpt lat="50.53806" lon="5.47594">
        <ele>265</ele>
      </trkpt>
      <trkpt lat="50.53801" lon="5.47629">
        <ele>264.4</ele>
      </trkpt>
      <trkpt lat="50.53798" lon="5.4767">
        <ele>263.9</ele>
      </trkpt>
      <trkpt lat="50.53801" lon="5.47747">
        <ele>262.3</ele>
      </trkpt>
      <trkpt lat="50.53808" lon="5.4782">
        <ele>261.1</ele>
      </trkpt>
      <trkpt lat="50.53829" lon="5.47945">
        <ele>261.8</ele>
      </trkpt>
      <trkpt lat="50.53834" lon="5.4797">
        <ele>262</ele>
      </trkpt>
      <trkpt lat="50.5379" lon="5.47979">
        <ele>260.4</ele>
      </trkpt>
      <trkpt lat="50.53751" lon="5.47988">
        <ele>259</ele>
      </trkpt>
      <trkpt lat="50.53678" lon="5.48026">
        <ele>260.6</ele>
      </trkpt>
      <trkpt lat="50.53659" lon="5.48035">
        <ele>261.6</ele>
      </trkpt>
      <trkpt lat="50.53611" lon="5.48045">
        <ele>264.4</ele>
      </trkpt>
      <trkpt lat="50.53598" lon="5.48047">
        <ele>265.1</ele>
      </trkpt>
      <trkpt lat="50.53588" lon="5.48051">
        <ele>265.7</ele>
      </trkpt>
      <trkpt lat="50.5356" lon="5.48059">
        <ele>266.8</ele>
      </trkpt>
      <trkpt lat="50.53541" lon="5.48065">
        <ele>267</ele>
      </trkpt>
      <trkpt lat="50.53505" lon="5.48076">
        <ele>267.2</ele>
      </trkpt>
      <trkpt lat="50.53499" lon="5.48082">
        <ele>267</ele>
      </trkpt>
      <trkpt lat="50.53495" lon="5.48085">
        <ele>267</ele>
      </trkpt>
      <trkpt lat="50.53451" lon="5.48139">
        <ele>265.2</ele>
      </trkpt>
      <trkpt lat="50.53449" lon="5.48143">
        <ele>265.2</ele>
      </trkpt>
      <trkpt lat="50.53444" lon="5.48152">
        <ele>265</ele>
      </trkpt>
      <trkpt lat="50.5344" lon="5.48161">
        <ele>264.9</ele>
      </trkpt>
      <trkpt lat="50.53429" lon="5.48144">
        <ele>264.9</ele>
      </trkpt>
      <trkpt lat="50.53418" lon="5.48126">
        <ele>265</ele>
      </trkpt>
      <trkpt lat="50.53406" lon="5.48102">
        <ele>264.5</ele>
      </trkpt>
      <trkpt lat="50.53384" lon="5.48059">
        <ele>263.7</ele>
      </trkpt>
      <trkpt lat="50.53368" lon="5.4804">
        <ele>263.8</ele>
      </trkpt>
      <trkpt lat="50.5336" lon="5.4803">
        <ele>263.9</ele>
      </trkpt>
      <trkpt lat="50.53346" lon="5.48013">
        <ele>264.2</ele>
      </trkpt>
      <trkpt lat="50.53314" lon="5.47978">
        <ele>263.5</ele>
      </trkpt>
      <trkpt lat="50.53291" lon="5.47963">
        <ele>263</ele>
      </trkpt>
      <trkpt lat="50.53278" lon="5.47955">
        <ele>262.6</ele>
      </trkpt>
      <trkpt lat="50.53238" lon="5.47923">
        <ele>261</ele>
      </trkpt>
      <trkpt lat="50.53225" lon="5.47911">
        <ele>260.4</ele>
      </trkpt>
      <trkpt lat="50.53212" lon="5.47899">
        <ele>259.9</ele>
        <extensions>
          <visugpx:TrkExtension xmlns:visugpx="https://www.visugpx.com/editgpx/">
            <visugpx:node>1</visugpx:node>
            </visugpx:TrkExtension>
        </extensions>
      </trkpt>
      <trkpt lat="50.53208" lon="5.47895">
        <ele>259.8</ele>
      </trkpt>
      <trkpt lat="50.53159" lon="5.47844">
        <ele>257.9</ele>
      </trkpt>
      <trkpt lat="50.53107" lon="5.47805">
        <ele>254.7</ele>
      </trkpt>
      <trkpt lat="50.53052" lon="5.47778">
        <ele>251.7</ele>
      </trkpt>
      <trkpt lat="50.53037" lon="5.47767">
        <ele>251.1</ele>
      </trkpt>
      <trkpt lat="50.53023" lon="5.4775">
        <ele>250.5</ele>
      </trkpt>
      <trkpt lat="50.53" lon="5.47724">
        <ele>248.9</ele>
      </trkpt>
      <trkpt lat="50.52966" lon="5.47692">
        <ele>246.8</ele>
      </trkpt>
      <trkpt lat="50.52935" lon="5.47673">
        <ele>244.8</ele>
      </trkpt>
      <trkpt lat="50.52914" lon="5.47663">
        <ele>243.3</ele>
      </trkpt>
      <trkpt lat="50.529" lon="5.47657">
        <ele>243</ele>
      </trkpt>
      <trkpt lat="50.52881" lon="5.47654">
        <ele>242.2</ele>
      </trkpt>
      <trkpt lat="50.52861" lon="5.47658">
        <ele>241.3</ele>
      </trkpt>
      <trkpt lat="50.52842" lon="5.47662">
        <ele>240.5</ele>
      </trkpt>
      <trkpt lat="50.52827" lon="5.47673">
        <ele>239.7</ele>
      </trkpt>
      <trkpt lat="50.52801" lon="5.4769">
        <ele>238.4</ele>
      </trkpt>
      <trkpt lat="50.52798" lon="5.47699">
        <ele>238.1</ele>
      </trkpt>
      <trkpt lat="50.52796" lon="5.47711">
        <ele>237.5</ele>
      </trkpt>
      <trkpt lat="50.52795" lon="5.47723">
        <ele>237</ele>
      </trkpt>
      <trkpt lat="50.52797" lon="5.47746">
        <ele>235.6</ele>
      </trkpt>
      <trkpt lat="50.52804" lon="5.47802">
        <ele>232.4</ele>
      </trkpt>
      <trkpt lat="50.52803" lon="5.47833">
        <ele>231.4</ele>
      </trkpt>
      <trkpt lat="50.52793" lon="5.47903">
        <ele>227.8</ele>
      </trkpt>
      <trkpt lat="50.5279" lon="5.47948">
        <ele>225.6</ele>
      </trkpt>
      <trkpt lat="50.52796" lon="5.47993">
        <ele>223.1</ele>
      </trkpt>
      <trkpt lat="50.52798" lon="5.48022">
        <ele>222.8</ele>
      </trkpt>
      <trkpt lat="50.5279" lon="5.48041">
        <ele>221</ele>
      </trkpt>
      <trkpt lat="50.52766" lon="5.48045">
        <ele>219.5</ele>
      </trkpt>
      <trkpt lat="50.52742" lon="5.48038">
        <ele>219.7</ele>
      </trkpt>
      <trkpt lat="50.52719" lon="5.4805">
        <ele>216.3</ele>
      </trkpt>
      <trkpt lat="50.52657" lon="5.48056">
        <ele>214.3</ele>
      </trkpt>
      <trkpt lat="50.52645" lon="5.48068">
        <ele>213</ele>
      </trkpt>
      <trkpt lat="50.52622" lon="5.48116">
        <ele>209.9</ele>
      </trkpt>
      <trkpt lat="50.52605" lon="5.48143">
        <ele>208.8</ele>
      </trkpt>
      <trkpt lat="50.52509" lon="5.48242">
        <ele>199.8</ele>
      </trkpt>
      <trkpt lat="50.52425" lon="5.48371">
        <ele>193.1</ele>
      </trkpt>
      <trkpt lat="50.52418" lon="5.48387">
        <ele>192.9</ele>
      </trkpt>
      <trkpt lat="50.52411" lon="5.48406">
        <ele>192.2</ele>
      </trkpt>
      <trkpt lat="50.5241" lon="5.48431">
        <ele>191.2</ele>
      </trkpt>
      <trkpt lat="50.52418" lon="5.48513">
        <ele>188.2</ele>
      </trkpt>
      <trkpt lat="50.52418" lon="5.48527">
        <ele>187.6</ele>
      </trkpt>
      <trkpt lat="50.52402" lon="5.48591">
        <ele>184</ele>
      </trkpt>
      <trkpt lat="50.52378" lon="5.48668">
        <ele>182.3</ele>
      </trkpt>
      <trkpt lat="50.52364" lon="5.48696">
        <ele>180.6</ele>
      </trkpt>
      <trkpt lat="50.52354" lon="5.48707">
        <ele>179.2</ele>
      </trkpt>
      <trkpt lat="50.52337" lon="5.4871">
        <ele>178.1</ele>
      </trkpt>
      <trkpt lat="50.52323" lon="5.48704">
        <ele>177</ele>
      </trkpt>
      <trkpt lat="50.52311" lon="5.48692">
        <ele>175.9</ele>
      </trkpt>
      <trkpt lat="50.52301" lon="5.48664">
        <ele>174.5</ele>
      </trkpt>
      <trkpt lat="50.5229" lon="5.48615">
        <ele>173.2</ele>
      </trkpt>
      <trkpt lat="50.52275" lon="5.48562">
        <ele>171.8</ele>
      </trkpt>
      <trkpt lat="50.52259" lon="5.48524">
        <ele>170.1</ele>
      </trkpt>
      <trkpt lat="50.52243" lon="5.48491">
        <ele>168.8</ele>
      </trkpt>
      <trkpt lat="50.52217" lon="5.48452">
        <ele>165.9</ele>
      </trkpt>
      <trkpt lat="50.5219" lon="5.48418">
        <ele>164</ele>
      </trkpt>
      <trkpt lat="50.52177" lon="5.48407">
        <ele>163.6</ele>
      </trkpt>
      <trkpt lat="50.52168" lon="5.48401">
        <ele>163.1</ele>
      </trkpt>
      <trkpt lat="50.52159" lon="5.484">
        <ele>162.3</ele>
      </trkpt>
      <trkpt lat="50.5215" lon="5.48403">
        <ele>161.3</ele>
      </trkpt>
      <trkpt lat="50.52141" lon="5.48412">
        <ele>160.2</ele>
      </trkpt>
      <trkpt lat="50.5212" lon="5.48443">
        <ele>159</ele>
      </trkpt>
      <trkpt lat="50.52116" lon="5.48448">
        <ele>159.8</ele>
      </trkpt>
      <trkpt lat="50.52112" lon="5.48451">
        <ele>160.6</ele>
      </trkpt>
      <trkpt lat="50.52105" lon="5.48456">
        <ele>161.8</ele>
      </trkpt>
      <trkpt lat="50.52095" lon="5.48458">
        <ele>162.9</ele>
      </trkpt>
      <trkpt lat="50.52083" lon="5.48454">
        <ele>163.4</ele>
      </trkpt>
      <trkpt lat="50.52064" lon="5.48437">
        <ele>163.7</ele>
      </trkpt>
      <trkpt lat="50.51996" lon="5.48354">
        <ele>170.2</ele>
      </trkpt>
      <trkpt lat="50.51952" lon="5.48283">
        <ele>173.5</ele>
      </trkpt>
      <trkpt lat="50.5193" lon="5.48231">
        <ele>176</ele>
      </trkpt>
      <trkpt lat="50.51922" lon="5.48208">
        <ele>176.9</ele>
      </trkpt>
      <trkpt lat="50.51917" lon="5.48201">
        <ele>178.1</ele>
      </trkpt>
      <trkpt lat="50.51913" lon="5.48203">
        <ele>179.6</ele>
      </trkpt>
      <trkpt lat="50.5191" lon="5.4821">
        <ele>181</ele>
      </trkpt>
      <trkpt lat="50.51911" lon="5.48219">
        <ele>180.9</ele>
      </trkpt>
      <trkpt lat="50.51921" lon="5.48255">
        <ele>181</ele>
      </trkpt>
      <trkpt lat="50.51927" lon="5.48312">
        <ele>183.2</ele>
      </trkpt>
      <trkpt lat="50.51951" lon="5.48407">
        <ele>186.9</ele>
      </trkpt>
      <trkpt lat="50.51952" lon="5.48428">
        <ele>188.2</ele>
      </trkpt>
      <trkpt lat="50.51953" lon="5.48447">
        <ele>189.2</ele>
      </trkpt>
      <trkpt lat="50.51953" lon="5.48467">
        <ele>190.1</ele>
      </trkpt>
      <trkpt lat="50.51951" lon="5.4848">
        <ele>190.9</ele>
      </trkpt>
      <trkpt lat="50.51949" lon="5.48491">
        <ele>191.5</ele>
      </trkpt>
      <trkpt lat="50.51943" lon="5.48502">
        <ele>192.1</ele>
      </trkpt>
      <trkpt lat="50.51923" lon="5.48522">
        <ele>192.8</ele>
      </trkpt>
      <trkpt lat="50.51907" lon="5.48483">
        <ele>192.5</ele>
      </trkpt>
      <trkpt lat="50.51889" lon="5.48436">
        <ele>193</ele>
      </trkpt>
      <trkpt lat="50.51848" lon="5.48295">
        <ele>192.2</ele>
      </trkpt>
      <trkpt lat="50.51817" lon="5.48186">
        <ele>193.3</ele>
        <extensions>
          <visugpx:TrkExtension xmlns:visugpx="https://www.visugpx.com/editgpx/">
            <visugpx:node>2</visugpx:node>
            </visugpx:TrkExtension>
        </extensions>
      </trkpt>
      <trkpt lat="50.51788" lon="5.48083">
        <ele>193.6</ele>
      </trkpt>
      <trkpt lat="50.51783" lon="5.48062">
        <ele>193.8</ele>
      </trkpt>
      <trkpt lat="50.51778" lon="5.47991">
        <ele>194</ele>
      </trkpt>
      <trkpt lat="50.51774" lon="5.47965">
        <ele>194.4</ele>
      </trkpt>
      <trkpt lat="50.51768" lon="5.47935">
        <ele>195.8</ele>
      </trkpt>
      <trkpt lat="50.51753" lon="5.47863">
        <ele>197</ele>
      </trkpt>
      <trkpt lat="50.51732" lon="5.47818">
        <ele>198.2</ele>
      </trkpt>
      <trkpt lat="50.51699" lon="5.47759">
        <ele>199.8</ele>
      </trkpt>
      <trkpt lat="50.51692" lon="5.47736">
        <ele>200</ele>
      </trkpt>
      <trkpt lat="50.51652" lon="5.47543">
        <ele>205.2</ele>
      </trkpt>
      <trkpt lat="50.51631" lon="5.47483">
        <ele>205.8</ele>
      </trkpt>
      <trkpt lat="50.51589" lon="5.47369">
        <ele>205.9</ele>
      </trkpt>
      <trkpt lat="50.51487" lon="5.47094">
        <ele>204.5</ele>
      </trkpt>
      <trkpt lat="50.51446" lon="5.46883">
        <ele>208.2</ele>
      </trkpt>
      <trkpt lat="50.51431" lon="5.46833">
        <ele>209</ele>
      </trkpt>
      <trkpt lat="50.51425" lon="5.46817">
        <ele>209.6</ele>
      </trkpt>
      <trkpt lat="50.51366" lon="5.46653">
        <ele>213.6</ele>
      </trkpt>
      <trkpt lat="50.51358" lon="5.46632">
        <ele>214.1</ele>
      </trkpt>
      <trkpt lat="50.51345" lon="5.4664">
        <ele>213.4</ele>
      </trkpt>
      <trkpt lat="50.51302" lon="5.46948">
        <ele>201.6</ele>
      </trkpt>
      <trkpt lat="50.51289" lon="5.47045">
        <ele>198.6</ele>
      </trkpt>
      <trkpt lat="50.51287" lon="5.47058">
        <ele>198.3</ele>
      </trkpt>
      <trkpt lat="50.51281" lon="5.47092">
        <ele>197.2</ele>
      </trkpt>
      <trkpt lat="50.51269" lon="5.47127">
        <ele>196.4</ele>
      </trkpt>
      <trkpt lat="50.5126" lon="5.47144">
        <ele>195.7</ele>
      </trkpt>
      <trkpt lat="50.5125" lon="5.47158">
        <ele>195</ele>
        <extensions>
          <visugpx:TrkExtension xmlns:visugpx="https://www.visugpx.com/editgpx/">
            <visugpx:node>3</visugpx:node>
            </visugpx:TrkExtension>
        </extensions>
      </trkpt>
      <trkpt lat="50.51241" lon="5.4717">
        <ele>193.9</ele>
      </trkpt>
      <trkpt lat="50.51086" lon="5.47349">
        <ele>184.6</ele>
      </trkpt>
      <trkpt lat="50.51076" lon="5.4736">
        <ele>184.2</ele>
      </trkpt>
      <trkpt lat="50.51009" lon="5.47441">
        <ele>183.3</ele>
      </trkpt>
      <trkpt lat="50.50923" lon="5.47541">
        <ele>180.2</ele>
      </trkpt>
      <trkpt lat="50.50716" lon="5.47781">
        <ele>171.7</ele>
      </trkpt>
      <trkpt lat="50.50667" lon="5.47838">
        <ele>173.1</ele>
      </trkpt>
      <trkpt lat="50.5066" lon="5.47847">
        <ele>174.1</ele>
      </trkpt>
      <trkpt lat="50.50653" lon="5.47856">
        <ele>175.5</ele>
      </trkpt>
      <trkpt lat="50.50643" lon="5.4784">
        <ele>174.7</ele>
      </trkpt>
      <trkpt lat="50.50558" lon="5.47712">
        <ele>174.5</ele>
      </trkpt>
      <trkpt lat="50.50539" lon="5.47693">
        <ele>175.7</ele>
      </trkpt>
      <trkpt lat="50.50522" lon="5.47683">
        <ele>176.3</ele>
      </trkpt>
      <trkpt lat="50.50506" lon="5.47677">
        <ele>176.8</ele>
      </trkpt>
      <trkpt lat="50.50483" lon="5.4768">
        <ele>176.7</ele>
      </trkpt>
      <trkpt lat="50.50401" lon="5.47722">
        <ele>177</ele>
      </trkpt>
      <trkpt lat="50.50363" lon="5.47728">
        <ele>178.1</ele>
        <extensions>
          <visugpx:TrkExtension xmlns:visugpx="https://www.visugpx.com/editgpx/">
            <visugpx:node>8</visugpx:node>
            </visugpx:TrkExtension>
        </extensions>
      </trkpt>
      <trkpt lat="50.50245" lon="5.47732">
        <ele>181.7</ele>
      </trkpt>
      <trkpt lat="50.50228" lon="5.47734">
        <ele>181.8</ele>
      </trkpt>
      <trkpt lat="50.50218" lon="5.47737">
        <ele>182</ele>
      </trkpt>
      <trkpt lat="50.50202" lon="5.47748">
        <ele>181.7</ele>
      </trkpt>
      <trkpt lat="50.50181" lon="5.47773">
        <ele>184</ele>
      </trkpt>
      <trkpt lat="50.50148" lon="5.47822">
        <ele>182.5</ele>
      </trkpt>
      <trkpt lat="50.50126" lon="5.47779">
        <ele>180.6</ele>
      </trkpt>
      <trkpt lat="50.50114" lon="5.47763">
        <ele>180.6</ele>
      </trkpt>
      <trkpt lat="50.50098" lon="5.47752">
        <ele>181.4</ele>
      </trkpt>
      <trkpt lat="50.50086" lon="5.47752">
        <ele>181.8</ele>
      </trkpt>
      <trkpt lat="50.50065" lon="5.47772">
        <ele>183</ele>
      </trkpt>
      <trkpt lat="50.50029" lon="5.47794">
        <ele>184.4</ele>
      </trkpt>
      <trkpt lat="50.50018" lon="5.47798">
        <ele>184.6</ele>
      </trkpt>
      <trkpt lat="50.50006" lon="5.478">
        <ele>185.4</ele>
      </trkpt>
      <trkpt lat="50.49978" lon="5.47796">
        <ele>186.5</ele>
      </trkpt>
      <trkpt lat="50.49967" lon="5.47791">
        <ele>187.1</ele>
      </trkpt>
      <trkpt lat="50.49953" lon="5.47781">
        <ele>187</ele>
      </trkpt>
      <trkpt lat="50.49933" lon="5.47763">
        <ele>187.9</ele>
      </trkpt>
      <trkpt lat="50.49896" lon="5.47716">
        <ele>191.3</ele>
      </trkpt>
      <trkpt lat="50.49852" lon="5.47655">
        <ele>195.2</ele>
      </trkpt>
      <trkpt lat="50.49805" lon="5.4758">
        <ele>200.5</ele>
        <extensions>
          <visugpx:TrkExtension xmlns:visugpx="https://www.visugpx.com/editgpx/">
            <visugpx:node>9</visugpx:node>
            </visugpx:TrkExtension>
        </extensions>
      </trkpt>
      <trkpt lat="50.49784" lon="5.47547">
        <ele>201.2</ele>
      </trkpt>
      <trkpt lat="50.4976" lon="5.475">
        <ele>199.7</ele>
      </trkpt>
      <trkpt lat="50.49719" lon="5.47394">
        <ele>201.1</ele>
      </trkpt>
      <trkpt lat="50.49713" lon="5.47371">
        <ele>200.3</ele>
      </trkpt>
      <trkpt lat="50.49713" lon="5.47362">
        <ele>200.8</ele>
      </trkpt>
      <trkpt lat="50.49719" lon="5.47342">
        <ele>202.9</ele>
      </trkpt>
      <trkpt lat="50.4973" lon="5.47325">
        <ele>204.5</ele>
      </trkpt>
      <trkpt lat="50.49735" lon="5.47303">
        <ele>204.4</ele>
      </trkpt>
      <trkpt lat="50.49735" lon="5.47285">
        <ele>204.7</ele>
      </trkpt>
      <trkpt lat="50.49733" lon="5.47273">
        <ele>204.8</ele>
      </trkpt>
      <trkpt lat="50.4973" lon="5.47262">
        <ele>204.8</ele>
      </trkpt>
      <trkpt lat="50.49711" lon="5.4722">
        <ele>204</ele>
      </trkpt>
      <trkpt lat="50.49681" lon="5.47139">
        <ele>202.7</ele>
      </trkpt>
      <trkpt lat="50.49669" lon="5.47115">
        <ele>200.9</ele>
      </trkpt>
      <trkpt lat="50.4964" lon="5.47083">
        <ele>199.6</ele>
      </trkpt>
      <trkpt lat="50.49608" lon="5.47034">
        <ele>199.3</ele>
      </trkpt>
      <trkpt lat="50.49583" lon="5.47003">
        <ele>200.6</ele>
      </trkpt>
      <trkpt lat="50.49492" lon="5.46925">
        <ele>203.3</ele>
      </trkpt>
      <trkpt lat="50.49472" lon="5.469">
        <ele>204.6</ele>
      </trkpt>
      <trkpt lat="50.49446" lon="5.46852">
        <ele>206.6</ele>
      </trkpt>
      <trkpt lat="50.49434" lon="5.46833">
        <ele>206.7</ele>
      </trkpt>
      <trkpt lat="50.49421" lon="5.46816">
        <ele>207.5</ele>
      </trkpt>
      <trkpt lat="50.49401" lon="5.46786">
        <ele>208.6</ele>
      </trkpt>
      <trkpt lat="50.49363" lon="5.4672">
        <ele>211.4</ele>
      </trkpt>
      <trkpt lat="50.49333" lon="5.46666">
        <ele>213.9</ele>
      </trkpt>
      <trkpt lat="50.49298" lon="5.46595">
        <ele>213.5</ele>
      </trkpt>
      <trkpt lat="50.49222" lon="5.4649">
        <ele>211.6</ele>
      </trkpt>
      <trkpt lat="50.49172" lon="5.46427">
        <ele>208.3</ele>
      </trkpt>
      <trkpt lat="50.49073" lon="5.46277">
        <ele>205.2</ele>
      </trkpt>
      <trkpt lat="50.49041" lon="5.46233">
        <ele>203.8</ele>
      </trkpt>
      <trkpt lat="50.48941" lon="5.46085">
        <ele>207.1</ele>
      </trkpt>
      <trkpt lat="50.48904" lon="5.46028">
        <ele>208.9</ele>
      </trkpt>
      <trkpt lat="50.4888" lon="5.45996">
        <ele>210.9</ele>
      </trkpt>
      <trkpt lat="50.48871" lon="5.45981">
        <ele>211.7</ele>
      </trkpt>
      <trkpt lat="50.48816" lon="5.45859">
        <ele>215.1</ele>
        <extensions>
          <visugpx:TrkExtension xmlns:visugpx="https://www.visugpx.com/editgpx/">
            <visugpx:node>10</visugpx:node>
            </visugpx:TrkExtension>
        </extensions>
      </trkpt>
      <trkpt lat="50.48801" lon="5.45829">
        <ele>217.4</ele>
      </trkpt>
      <trkpt lat="50.48793" lon="5.45815">
        <ele>217.7</ele>
      </trkpt>
      <trkpt lat="50.48782" lon="5.45803">
        <ele>218.6</ele>
      </trkpt>
      <trkpt lat="50.48727" lon="5.45754">
        <ele>219.8</ele>
      </trkpt>
      <trkpt lat="50.48708" lon="5.45741">
        <ele>221.2</ele>
      </trkpt>
      <trkpt lat="50.48687" lon="5.45735">
        <ele>221.3</ele>
      </trkpt>
      <trkpt lat="50.48674" lon="5.45736">
        <ele>221.4</ele>
      </trkpt>
      <trkpt lat="50.48653" lon="5.45741">
        <ele>221.5</ele>
      </trkpt>
      <trkpt lat="50.48644" lon="5.45746">
        <ele>221.3</ele>
      </trkpt>
      <trkpt lat="50.48628" lon="5.45761">
        <ele>221</ele>
      </trkpt>
      <trkpt lat="50.4852" lon="5.45874">
        <ele>220.7</ele>
      </trkpt>
      <trkpt lat="50.48503" lon="5.45897">
        <ele>218.7</ele>
      </trkpt>
      <trkpt lat="50.48492" lon="5.45909">
        <ele>217</ele>
      </trkpt>
      <trkpt lat="50.48484" lon="5.45912">
        <ele>216.6</ele>
      </trkpt>
      <trkpt lat="50.48467" lon="5.4591">
        <ele>216.7</ele>
      </trkpt>
      <trkpt lat="50.4845" lon="5.45911">
        <ele>216.6</ele>
      </trkpt>
      <trkpt lat="50.48435" lon="5.45914">
        <ele>216.3</ele>
      </trkpt>
      <trkpt lat="50.48374" lon="5.45932">
        <ele>217.5</ele>
      </trkpt>
      <trkpt lat="50.48349" lon="5.45942">
        <ele>218.3</ele>
      </trkpt>
      <trkpt lat="50.48308" lon="5.45964">
        <ele>218.9</ele>
      </trkpt>
      <trkpt lat="50.48214" lon="5.4603">
        <ele>224.5</ele>
      </trkpt>
      <trkpt lat="50.48183" lon="5.46042">
        <ele>225.5</ele>
      </trkpt>
      <trkpt lat="50.48174" lon="5.46042">
        <ele>226.3</ele>
      </trkpt>
      <trkpt lat="50.48144" lon="5.46029">
        <ele>228</ele>
      </trkpt>
      <trkpt lat="50.48124" lon="5.46006">
        <ele>229.4</ele>
      </trkpt>
      <trkpt lat="50.48106" lon="5.45977">
        <ele>231.2</ele>
      </trkpt>
      <trkpt lat="50.48092" lon="5.45962">
        <ele>232.2</ele>
      </trkpt>
      <trkpt lat="50.48063" lon="5.45938">
        <ele>233.9</ele>
      </trkpt>
      <trkpt lat="50.48052" lon="5.45932">
        <ele>234.5</ele>
      </trkpt>
      <trkpt lat="50.48014" lon="5.45925">
        <ele>236.3</ele>
      </trkpt>
      <trkpt lat="50.47994" lon="5.45923">
        <ele>237.5</ele>
      </trkpt>
      <trkpt lat="50.47975" lon="5.45923">
        <ele>238.7</ele>
      </trkpt>
      <trkpt lat="50.47962" lon="5.45925">
        <ele>239.1</ele>
      </trkpt>
      <trkpt lat="50.4795" lon="5.45929">
        <ele>239.3</ele>
      </trkpt>
      <trkpt lat="50.47929" lon="5.45938">
        <ele>239.9</ele>
      </trkpt>
      <trkpt lat="50.47918" lon="5.45944">
        <ele>239.9</ele>
      </trkpt>
      <trkpt lat="50.479" lon="5.45951">
        <ele>240.6</ele>
      </trkpt>
      <trkpt lat="50.47891" lon="5.45953">
        <ele>241.3</ele>
      </trkpt>
      <trkpt lat="50.47882" lon="5.4595">
        <ele>241.4</ele>
      </trkpt>
      <trkpt lat="50.47849" lon="5.46038">
        <ele>234</ele>
      </trkpt>
      <trkpt lat="50.47799" lon="5.46213">
        <ele>234.4</ele>
      </trkpt>
      <trkpt lat="50.47775" lon="5.46234">
        <ele>236.4</ele>
      </trkpt>
      <trkpt lat="50.47718" lon="5.46263">
        <ele>239.9</ele>
        <extensions>
          <visugpx:TrkExtension xmlns:visugpx="https://www.visugpx.com/editgpx/">
            <visugpx:node>11</visugpx:node>
            </visugpx:TrkExtension>
        </extensions>
      </trkpt>
      <trkpt lat="50.47671" lon="5.46288">
        <ele>241.1</ele>
      </trkpt>
      <trkpt lat="50.47657" lon="5.46313">
        <ele>240.2</ele>
      </trkpt>
      <trkpt lat="50.47651" lon="5.46378">
        <ele>237.3</ele>
      </trkpt>
      <trkpt lat="50.47651" lon="5.46502">
        <ele>243.1</ele>
      </trkpt>
      <trkpt lat="50.47646" lon="5.46556">
        <ele>245.5</ele>
      </trkpt>
      <trkpt lat="50.4756" lon="5.47089">
        <ele>258</ele>
      </trkpt>
      <trkpt lat="50.47507" lon="5.47111">
        <ele>260.6</ele>
      </trkpt>
      <trkpt lat="50.47497" lon="5.47119">
        <ele>261.7</ele>
      </trkpt>
      <trkpt lat="50.47478" lon="5.47142">
        <ele>263.7</ele>
      </trkpt>
      <trkpt lat="50.47395" lon="5.47261">
        <ele>267.6</ele>
      </trkpt>
      <trkpt lat="50.47379" lon="5.47297">
        <ele>266.1</ele>
      </trkpt>
      <trkpt lat="50.47319" lon="5.475">
        <ele>281.6</ele>
      </trkpt>
      <trkpt lat="50.47311" lon="5.47517">
        <ele>282.1</ele>
      </trkpt>
      <trkpt lat="50.47201" lon="5.47596">
        <ele>286</ele>
      </trkpt>
      <trkpt lat="50.47209" lon="5.47619">
        <ele>286</ele>
        <extensions>
          <visugpx:TrkExtension xmlns:visugpx="https://www.visugpx.com/editgpx/">
            <visugpx:node>12</visugpx:node>
            </visugpx:TrkExtension>
        </extensions>
      </trkpt>
      <trkpt lat="50.47125" lon="5.47392">
        <ele>287</ele>
      </trkpt>
      <trkpt lat="50.47007" lon="5.47066">
        <ele>290.2</ele>
      </trkpt>
      <trkpt lat="50.46988" lon="5.47019">
        <ele>289.9</ele>
      </trkpt>
      <trkpt lat="50.46889" lon="5.46723">
        <ele>291</ele>
      </trkpt>
      <trkpt lat="50.46879" lon="5.467">
        <ele>290.6</ele>
      </trkpt>
      <trkpt lat="50.46845" lon="5.46543">
        <ele>292</ele>
      </trkpt>
      <trkpt lat="50.4683" lon="5.46466">
        <ele>291.1</ele>
        <extensions>
          <visugpx:TrkExtension xmlns:visugpx="https://www.visugpx.com/editgpx/">
            <visugpx:node>106</visugpx:node>
            </visugpx:TrkExtension>
        </extensions>
      </trkpt>
      <trkpt lat="50.46819" lon="5.4634">
        <ele>291</ele>
      </trkpt>
      <trkpt lat="50.46814" lon="5.46232">
        <ele>291</ele>
      </trkpt>
      <trkpt lat="50.46809" lon="5.46197">
        <ele>291.1</ele>
      </trkpt>
      <trkpt lat="50.46801" lon="5.46155">
        <ele>291.8</ele>
      </trkpt>
      <trkpt lat="50.46755" lon="5.45962">
        <ele>291.1</ele>
      </trkpt>
      <trkpt lat="50.46719" lon="5.45818">
        <ele>290.4</ele>
      </trkpt>
      <trkpt lat="50.46603" lon="5.45383">
        <ele>291.4</ele>
      </trkpt>
      <trkpt lat="50.46492" lon="5.44976">
        <ele>293.6</ele>
      </trkpt>
      <trkpt lat="50.46477" lon="5.44925">
        <ele>292.5</ele>
      </trkpt>
      <trkpt lat="50.46473" lon="5.449">
        <ele>292</ele>
      </trkpt>
      <trkpt lat="50.46474" lon="5.44887">
        <ele>292</ele>
      </trkpt>
      <trkpt lat="50.46464" lon="5.44869">
        <ele>292</ele>
      </trkpt>
      <trkpt lat="50.46409" lon="5.44712">
        <ele>291</ele>
      </trkpt>
      <trkpt lat="50.46384" lon="5.44646">
        <ele>290.8</ele>
      </trkpt>
      <trkpt lat="50.46287" lon="5.44436">
        <ele>291</ele>
      </trkpt>
      <trkpt lat="50.46215" lon="5.44263">
        <ele>292.4</ele>
        <extensions>
          <visugpx:TrkExtension xmlns:visugpx="https://www.visugpx.com/editgpx/">
            <visugpx:node>107</visugpx:node>
            </visugpx:TrkExtension>
        </extensions>
      </trkpt>
      <trkpt lat="50.46197" lon="5.44218">
        <ele>292.9</ele>
      </trkpt>
      <trkpt lat="50.46113" lon="5.44033">
        <ele>294</ele>
      </trkpt>
      <trkpt lat="50.46055" lon="5.43895">
        <ele>296</ele>
      </trkpt>
      <trkpt lat="50.46017" lon="5.43798">
        <ele>299.7</ele>
      </trkpt>
      <trkpt lat="50.4596" lon="5.4363">
        <ele>303.2</ele>
      </trkpt>
      <trkpt lat="50.45935" lon="5.43575">
        <ele>304</ele>
      </trkpt>
      <trkpt lat="50.45922" lon="5.43551">
        <ele>304</ele>
      </trkpt>
      <trkpt lat="50.45894" lon="5.43507">
        <ele>303.9</ele>
      </trkpt>
      <trkpt lat="50.45792" lon="5.43381">
        <ele>302.6</ele>
      </trkpt>
      <trkpt lat="50.45771" lon="5.43349">
        <ele>302</ele>
      </trkpt>
      <trkpt lat="50.45748" lon="5.43308">
        <ele>301.2</ele>
      </trkpt>
      <trkpt lat="50.45724" lon="5.43245">
        <ele>299.8</ele>
      </trkpt>
      <trkpt lat="50.4571" lon="5.43213">
        <ele>299.1</ele>
      </trkpt>
      <trkpt lat="50.45685" lon="5.43168">
        <ele>298.7</ele>
      </trkpt>
      <trkpt lat="50.45658" lon="5.43127">
        <ele>299.4</ele>
      </trkpt>
      <trkpt lat="50.45648" lon="5.43116">
        <ele>299.2</ele>
      </trkpt>
      <trkpt lat="50.45638" lon="5.43097">
        <ele>299</ele>
      </trkpt>
      <trkpt lat="50.45619" lon="5.43111">
        <ele>299.7</ele>
      </trkpt>
      <trkpt lat="50.456" lon="5.43122">
        <ele>301.4</ele>
      </trkpt>
      <trkpt lat="50.4559" lon="5.43125">
        <ele>302.1</ele>
      </trkpt>
      <trkpt lat="50.4558" lon="5.43127">
        <ele>302.6</ele>
      </trkpt>
      <trkpt lat="50.45548" lon="5.43122">
        <ele>303.2</ele>
      </trkpt>
      <trkpt lat="50.45541" lon="5.43122">
        <ele>303.3</ele>
      </trkpt>
      <trkpt lat="50.45523" lon="5.43128">
        <ele>303.4</ele>
      </trkpt>
      <trkpt lat="50.45494" lon="5.43153">
        <ele>303.3</ele>
      </trkpt>
      <trkpt lat="50.45464" lon="5.43185">
        <ele>301.8</ele>
      </trkpt>
      <trkpt lat="50.45443" lon="5.43202">
        <ele>300.7</ele>
      </trkpt>
      <trkpt lat="50.45433" lon="5.43204">
        <ele>300.2</ele>
      </trkpt>
      <trkpt lat="50.45423" lon="5.43204">
        <ele>299.9</ele>
      </trkpt>
      <trkpt lat="50.45404" lon="5.432">
        <ele>298.9</ele>
      </trkpt>
      <trkpt lat="50.45394" lon="5.43202">
        <ele>298.1</ele>
      </trkpt>
      <trkpt lat="50.45373" lon="5.43211">
        <ele>296.2</ele>
      </trkpt>
      <trkpt lat="50.45293" lon="5.43248">
        <ele>290.2</ele>
      </trkpt>
      <trkpt lat="50.45203" lon="5.43301">
        <ele>284.3</ele>
      </trkpt>
      <trkpt lat="50.45179" lon="5.43228">
        <ele>283.8</ele>
      </trkpt>
      <trkpt lat="50.45159" lon="5.43192">
        <ele>282.8</ele>
      </trkpt>
      <trkpt lat="50.45133" lon="5.43158">
        <ele>282.7</ele>
      </trkpt>
      <trkpt lat="50.45108" lon="5.43119">
        <ele>282.4</ele>
      </trkpt>
      <trkpt lat="50.45098" lon="5.43099">
        <ele>282.5</ele>
      </trkpt>
      <trkpt lat="50.45049" lon="5.4297">
        <ele>281.1</ele>
      </trkpt>
      <trkpt lat="50.45033" lon="5.42942">
        <ele>281.4</ele>
      </trkpt>
      <trkpt lat="50.44978" lon="5.42863">
        <ele>279.4</ele>
      </trkpt>
      <trkpt lat="50.44947" lon="5.4281">
        <ele>278.2</ele>
      </trkpt>
      <trkpt lat="50.44952" lon="5.42795">
        <ele>278.3</ele>
      </trkpt>
      <trkpt lat="50.44957" lon="5.42768">
        <ele>278.4</ele>
        <extensions>
          <visugpx:TrkExtension xmlns:visugpx="https://www.visugpx.com/editgpx/">
            <visugpx:node>108</visugpx:node>
            </visugpx:TrkExtension>
        </extensions>
      </trkpt>
      <trkpt lat="50.44963" lon="5.42725">
        <ele>279.6</ele>
      </trkpt>
      <trkpt lat="50.44988" lon="5.42414">
        <ele>283.2</ele>
      </trkpt>
      <trkpt lat="50.4499" lon="5.42371">
        <ele>283.2</ele>
      </trkpt>
      <trkpt lat="50.44985" lon="5.42225">
        <ele>287.3</ele>
      </trkpt>
      <trkpt lat="50.44981" lon="5.42171">
        <ele>288</ele>
      </trkpt>
      <trkpt lat="50.44941" lon="5.41931">
        <ele>292.6</ele>
      </trkpt>
      <trkpt lat="50.44943" lon="5.41874">
        <ele>293.5</ele>
      </trkpt>
      <trkpt lat="50.44947" lon="5.41847">
        <ele>294.1</ele>
      </trkpt>
      <trkpt lat="50.44961" lon="5.41767">
        <ele>295.7</ele>
      </trkpt>
      <trkpt lat="50.44957" lon="5.41766">
        <ele>295.7</ele>
      </trkpt>
      <trkpt lat="50.44953" lon="5.41757">
        <ele>295.8</ele>
      </trkpt>
      <trkpt lat="50.44951" lon="5.41747">
        <ele>295.9</ele>
      </trkpt>
      <trkpt lat="50.44942" lon="5.41675">
        <ele>294</ele>
      </trkpt>
      <trkpt lat="50.44922" lon="5.41584">
        <ele>291.6</ele>
      </trkpt>
      <trkpt lat="50.44858" lon="5.41354">
        <ele>286.6</ele>
      </trkpt>
      <trkpt lat="50.44848" lon="5.41323">
        <ele>285.5</ele>
      </trkpt>
      <trkpt lat="50.44843" lon="5.41296">
        <ele>285.3</ele>
      </trkpt>
      <trkpt lat="50.44822" lon="5.41069">
        <ele>281.4</ele>
      </trkpt>
      <trkpt lat="50.44793" lon="5.40774">
        <ele>277.6</ele>
      </trkpt>
      <trkpt lat="50.44782" lon="5.40683">
        <ele>276.8</ele>
      </trkpt>
      <trkpt lat="50.44775" lon="5.40633">
        <ele>277</ele>
      </trkpt>
      <trkpt lat="50.44773" lon="5.40601">
        <ele>277.2</ele>
      </trkpt>
      <trkpt lat="50.44774" lon="5.40555">
        <ele>278</ele>
      </trkpt>
      <trkpt lat="50.44784" lon="5.40493">
        <ele>278.8</ele>
      </trkpt>
      <trkpt lat="50.44782" lon="5.40456">
        <ele>278.8</ele>
      </trkpt>
      <trkpt lat="50.44773" lon="5.4043">
        <ele>279.2</ele>
      </trkpt>
      <trkpt lat="50.44765" lon="5.40418">
        <ele>279.5</ele>
      </trkpt>
      <trkpt lat="50.44716" lon="5.40361">
        <ele>280.5</ele>
      </trkpt>
      <trkpt lat="50.44711" lon="5.40357">
        <ele>280.8</ele>
      </trkpt>
      <trkpt lat="50.44699" lon="5.40354">
        <ele>281.5</ele>
      </trkpt>
      <trkpt lat="50.4467" lon="5.40358">
        <ele>283.6</ele>
      </trkpt>
      <trkpt lat="50.44655" lon="5.40356">
        <ele>284.5</ele>
      </trkpt>
      <trkpt lat="50.44644" lon="5.4035">
        <ele>284.9</ele>
      </trkpt>
      <trkpt lat="50.44638" lon="5.40344">
        <ele>284.9</ele>
      </trkpt>
      <trkpt lat="50.44631" lon="5.40332">
        <ele>284.8</ele>
      </trkpt>
      <trkpt lat="50.44573" lon="5.40182">
        <ele>283.5</ele>
      </trkpt>
      <trkpt lat="50.4453" lon="5.40076">
        <ele>282.5</ele>
      </trkpt>
      <trkpt lat="50.44507" lon="5.40023">
        <ele>281.2</ele>
      </trkpt>
      <trkpt lat="50.44414" lon="5.39785">
        <ele>276.1</ele>
      </trkpt>
      <trkpt lat="50.4439" lon="5.39726">
        <ele>275.1</ele>
      </trkpt>
      <trkpt lat="50.44346" lon="5.3961">
        <ele>276.6</ele>
      </trkpt>
      <trkpt lat="50.44343" lon="5.39594">
        <ele>276.7</ele>
      </trkpt>
      <trkpt lat="50.4434" lon="5.39539">
        <ele>276.3</ele>
      </trkpt>
      <trkpt lat="50.44339" lon="5.39223">
        <ele>270</ele>
        <extensions>
          <visugpx:TrkExtension xmlns:visugpx="https://www.visugpx.com/editgpx/">
            <visugpx:node>109</visugpx:node>
            </visugpx:TrkExtension>
        </extensions>
      </trkpt>
      <trkpt lat="50.44334" lon="5.39">
        <ele>265</ele>
        <extensions>
          <visugpx:TrkExtension xmlns:visugpx="https://www.visugpx.com/editgpx/">
            <visugpx:node>106</visugpx:node>
            </visugpx:TrkExtension>
        </extensions>
      </trkpt>
      <trkpt lat="50.44331" lon="5.3896">
        <ele>264.5</ele>
      </trkpt>
      <trkpt lat="50.4427" lon="5.38659">
        <ele>264</ele>
      </trkpt>
      <trkpt lat="50.44262" lon="5.38631">
        <ele>263.6</ele>
      </trkpt>
      <trkpt lat="50.44002" lon="5.38079">
        <ele>266.8</ele>
      </trkpt>
      <trkpt lat="50.43708" lon="5.37453">
        <ele>249.8</ele>
      </trkpt>
      <trkpt lat="50.43592" lon="5.37202">
        <ele>243.8</ele>
      </trkpt>
      <trkpt lat="50.43412" lon="5.36819">
        <ele>258.1</ele>
      </trkpt>
      <trkpt lat="50.4338" lon="5.36752">
        <ele>259</ele>
      </trkpt>
      <trkpt lat="50.43323" lon="5.36636">
        <ele>260</ele>
        <extensions>
          <visugpx:TrkExtension xmlns:visugpx="https://www.visugpx.com/editgpx/">
            <visugpx:node>18</visugpx:node>
            </visugpx:TrkExtension>
        </extensions>
      </trkpt>
      <trkpt lat="50.43321" lon="5.36633">
        <ele>260.1</ele>
      </trkpt>
      <trkpt lat="50.43221" lon="5.36417">
        <ele>263</ele>
      </trkpt>
      <trkpt lat="50.43213" lon="5.36401">
        <ele>263</ele>
      </trkpt>
      <trkpt lat="50.43185" lon="5.3634">
        <ele>263.8</ele>
      </trkpt>
      <trkpt lat="50.4314" lon="5.36244">
        <ele>264</ele>
      </trkpt>
      <trkpt lat="50.43134" lon="5.36232">
        <ele>264.3</ele>
      </trkpt>
      <trkpt lat="50.43004" lon="5.35957">
        <ele>265.9</ele>
      </trkpt>
      <trkpt lat="50.42972" lon="5.35889">
        <ele>265</ele>
      </trkpt>
      <trkpt lat="50.42835" lon="5.35598">
        <ele>262.5</ele>
      </trkpt>
      <trkpt lat="50.42821" lon="5.35555">
        <ele>262</ele>
        <extensions>
          <visugpx:TrkExtension xmlns:visugpx="https://www.visugpx.com/editgpx/">
            <visugpx:node>70</visugpx:node>
            </visugpx:TrkExtension>
        </extensions>
      </trkpt>
      <trkpt lat="50.43739" lon="5.31202">
        <ele>238.9</ele>
        <extensions>
          <visugpx:TrkExtension xmlns:visugpx="https://www.visugpx.com/editgpx/">
            <visugpx:node>69</visugpx:node>
            </visugpx:TrkExtension>
        </extensions>
      </trkpt>
      <trkpt lat="50.43839" lon="5.30777">
        <ele>236</ele>
      </trkpt>
      <trkpt lat="50.4401" lon="5.3008">
        <ele>237.6</ele>
      </trkpt>
      <trkpt lat="50.44024" lon="5.30035">
        <ele>237.8</ele>
      </trkpt>
      <trkpt lat="50.44051" lon="5.29979">
        <ele>237.1</ele>
      </trkpt>
      <trkpt lat="50.44071" lon="5.2995">
        <ele>237.2</ele>
      </trkpt>
      <trkpt lat="50.44086" lon="5.29932">
        <ele>237.5</ele>
      </trkpt>
      <trkpt lat="50.44129" lon="5.29882">
        <ele>238.5</ele>
        <extensions>
          <visugpx:TrkExtension xmlns:visugpx="https://www.visugpx.com/editgpx/">
            <visugpx:node>26</visugpx:node>
            </visugpx:TrkExtension>
        </extensions>
      </trkpt>
      <trkpt lat="50.44132" lon="5.29889">
        <ele>238.2</ele>
      </trkpt>
      <trkpt lat="50.44192" lon="5.3003">
        <ele>235.6</ele>
      </trkpt>
      <trkpt lat="50.44196" lon="5.30037">
        <ele>235.1</ele>
      </trkpt>
      <trkpt lat="50.44204" lon="5.30046">
        <ele>234.6</ele>
      </trkpt>
      <trkpt lat="50.44216" lon="5.30053">
        <ele>234.8</ele>
        <extensions>
          <visugpx:TrkExtension xmlns:visugpx="https://www.visugpx.com/editgpx/">
            <visugpx:node>27</visugpx:node>
            </visugpx:TrkExtension>
        </extensions>
      </trkpt>
      <trkpt lat="50.44235" lon="5.30064">
        <ele>235.2</ele>
      </trkpt>
      <trkpt lat="50.4423" lon="5.30032">
        <ele>236.5</ele>
      </trkpt>
      <trkpt lat="50.44211" lon="5.29824">
        <ele>235.1</ele>
      </trkpt>
      <trkpt lat="50.44217" lon="5.29819">
        <ele>234.7</ele>
        <extensions>
          <visugpx:TrkExtension xmlns:visugpx="https://www.visugpx.com/editgpx/">
            <visugpx:node>28</visugpx:node>
            </visugpx:TrkExtension>
        </extensions>
      </trkpt>
      <trkpt lat="50.44265" lon="5.29779">
        <ele>232</ele>
      </trkpt>
      <trkpt lat="50.445" lon="5.29582">
        <ele>235</ele>
      </trkpt>
      <trkpt lat="50.44576" lon="5.29517">
        <ele>233.3</ele>
      </trkpt>
      <trkpt lat="50.4464" lon="5.29464">
        <ele>230.9</ele>
      </trkpt>
      <trkpt lat="50.44714" lon="5.29401">
        <ele>229</ele>
      </trkpt>
      <trkpt lat="50.44716" lon="5.294">
        <ele>228.9</ele>
      </trkpt>
      <trkpt lat="50.4475" lon="5.29373">
        <ele>228.6</ele>
      </trkpt>
      <trkpt lat="50.44788" lon="5.29348">
        <ele>227.1</ele>
      </trkpt>
      <trkpt lat="50.44825" lon="5.29324">
        <ele>225.2</ele>
      </trkpt>
      <trkpt lat="50.4491" lon="5.29275">
        <ele>218.5</ele>
      </trkpt>
      <trkpt lat="50.44919" lon="5.2927">
        <ele>217.8</ele>
      </trkpt>
      <trkpt lat="50.44956" lon="5.29249">
        <ele>215.2</ele>
      </trkpt>
      <trkpt lat="50.45005" lon="5.29221">
        <ele>212.3</ele>
      </trkpt>
      <trkpt lat="50.45021" lon="5.29209">
        <ele>210.8</ele>
      </trkpt>
      <trkpt lat="50.45039" lon="5.29192">
        <ele>210.8</ele>
      </trkpt>
      <trkpt lat="50.45052" lon="5.29176">
        <ele>210.4</ele>
      </trkpt>
      <trkpt lat="50.45065" lon="5.29152">
        <ele>208.3</ele>
      </trkpt>
      <trkpt lat="50.45073" lon="5.29127">
        <ele>206.4</ele>
      </trkpt>
      <trkpt lat="50.45077" lon="5.29103">
        <ele>205.5</ele>
      </trkpt>
      <trkpt lat="50.4508" lon="5.29065">
        <ele>205.1</ele>
      </trkpt>
      <trkpt lat="50.45085" lon="5.28854">
        <ele>197.2</ele>
      </trkpt>
      <trkpt lat="50.45086" lon="5.28804">
        <ele>195.1</ele>
      </trkpt>
      <trkpt lat="50.45088" lon="5.28679">
        <ele>191.1</ele>
      </trkpt>
      <trkpt lat="50.45088" lon="5.28646">
        <ele>189.4</ele>
      </trkpt>
      <trkpt lat="50.45087" lon="5.28623">
        <ele>189.7</ele>
      </trkpt>
      <trkpt lat="50.45088" lon="5.28607">
        <ele>189.4</ele>
      </trkpt>
      <trkpt lat="50.4509" lon="5.28595">
        <ele>187.7</ele>
      </trkpt>
      <trkpt lat="50.45093" lon="5.28582">
        <ele>186.3</ele>
      </trkpt>
      <trkpt lat="50.45097" lon="5.2856">
        <ele>185.6</ele>
      </trkpt>
      <trkpt lat="50.45103" lon="5.28538">
        <ele>185.7</ele>
      </trkpt>
      <trkpt lat="50.45119" lon="5.28495">
        <ele>185.2</ele>
      </trkpt>
      <trkpt lat="50.45128" lon="5.28473">
        <ele>184</ele>
      </trkpt>
      <trkpt lat="50.45137" lon="5.28448">
        <ele>183.1</ele>
      </trkpt>
      <trkpt lat="50.45139" lon="5.28443">
        <ele>183</ele>
      </trkpt>
      <trkpt lat="50.4515" lon="5.28454">
        <ele>181.5</ele>
      </trkpt>
      <trkpt lat="50.45153" lon="5.28457">
        <ele>181.3</ele>
      </trkpt>
      <trkpt lat="50.45167" lon="5.28471">
        <ele>181.8</ele>
      </trkpt>
      <trkpt lat="50.45169" lon="5.28473">
        <ele>182.1</ele>
      </trkpt>
      <trkpt lat="50.45183" lon="5.28486">
        <ele>183.1</ele>
      </trkpt>
      <trkpt lat="50.45186" lon="5.2848">
        <ele>183.4</ele>
      </trkpt>
      <trkpt lat="50.452" lon="5.28445">
        <ele>182.8</ele>
      </trkpt>
      <trkpt lat="50.45201" lon="5.28442">
        <ele>182.7</ele>
      </trkpt>
      <trkpt lat="50.45208" lon="5.2842">
        <ele>182.1</ele>
      </trkpt>
      <trkpt lat="50.45213" lon="5.28396">
        <ele>181.3</ele>
      </trkpt>
      <trkpt lat="50.45213" lon="5.28372">
        <ele>180.6</ele>
      </trkpt>
      <trkpt lat="50.45208" lon="5.28347">
        <ele>181.2</ele>
      </trkpt>
      <trkpt lat="50.45195" lon="5.28316">
        <ele>179.5</ele>
      </trkpt>
      <trkpt lat="50.45157" lon="5.28268">
        <ele>179.7</ele>
      </trkpt>
      <trkpt lat="50.45152" lon="5.2826">
        <ele>180.4</ele>
      </trkpt>
      <trkpt lat="50.45148" lon="5.2825">
        <ele>180.2</ele>
      </trkpt>
      <trkpt lat="50.45144" lon="5.28241">
        <ele>178.2</ele>
      </trkpt>
      <trkpt lat="50.45141" lon="5.28231">
        <ele>176.4</ele>
      </trkpt>
      <trkpt lat="50.45138" lon="5.28217">
        <ele>174.5</ele>
      </trkpt>
      <trkpt lat="50.45137" lon="5.28202">
        <ele>173.2</ele>
      </trkpt>
      <trkpt lat="50.45139" lon="5.28171">
        <ele>172.2</ele>
      </trkpt>
      <trkpt lat="50.45157" lon="5.2809">
        <ele>171.1</ele>
      </trkpt>
      <trkpt lat="50.45174" lon="5.28024">
        <ele>168.9</ele>
        <extensions>
          <visugpx:TrkExtension xmlns:visugpx="https://www.visugpx.com/editgpx/">
            <visugpx:node>72</visugpx:node>
            </visugpx:TrkExtension>
        </extensions>
      </trkpt>
      <trkpt lat="50.45185" lon="5.27997">
        <ele>168.3</ele>
      </trkpt>
      <trkpt lat="50.45213" lon="5.27932">
        <ele>167.7</ele>
      </trkpt>
      <trkpt lat="50.45246" lon="5.27867">
        <ele>167.8</ele>
      </trkpt>
      <trkpt lat="50.45255" lon="5.27858">
        <ele>166.9</ele>
      </trkpt>
      <trkpt lat="50.45262" lon="5.27852">
        <ele>166.6</ele>
      </trkpt>
      <trkpt lat="50.45279" lon="5.27849">
        <ele>166.7</ele>
      </trkpt>
      <trkpt lat="50.45288" lon="5.27853">
        <ele>166.5</ele>
      </trkpt>
      <trkpt lat="50.45297" lon="5.27861">
        <ele>166.2</ele>
      </trkpt>
      <trkpt lat="50.45329" lon="5.27904">
        <ele>168.1</ele>
      </trkpt>
      <trkpt lat="50.45397" lon="5.28003">
        <ele>164.8</ele>
      </trkpt>
      <trkpt lat="50.45433" lon="5.28056">
        <ele>166.7</ele>
      </trkpt>
      <trkpt lat="50.45448" lon="5.28082">
        <ele>166.3</ele>
      </trkpt>
      <trkpt lat="50.45473" lon="5.28132">
        <ele>165.2</ele>
      </trkpt>
      <trkpt lat="50.45486" lon="5.28165">
        <ele>167.7</ele>
      </trkpt>
      <trkpt lat="50.45522" lon="5.28264">
        <ele>165.8</ele>
      </trkpt>
      <trkpt lat="50.45532" lon="5.28289">
        <ele>165</ele>
      </trkpt>
      <trkpt lat="50.45555" lon="5.28331">
        <ele>164.1</ele>
      </trkpt>
      <trkpt lat="50.45579" lon="5.28362">
        <ele>164.8</ele>
      </trkpt>
      <trkpt lat="50.45599" lon="5.28383">
        <ele>164.2</ele>
      </trkpt>
      <trkpt lat="50.45654" lon="5.28426">
        <ele>164.2</ele>
      </trkpt>
      <trkpt lat="50.45685" lon="5.28445">
        <ele>164</ele>
      </trkpt>
      <trkpt lat="50.45706" lon="5.28453">
        <ele>163.9</ele>
      </trkpt>
      <trkpt lat="50.45728" lon="5.28459">
        <ele>163.6</ele>
      </trkpt>
      <trkpt lat="50.45823" lon="5.28476">
        <ele>164.9</ele>
      </trkpt>
      <trkpt lat="50.45841" lon="5.28474">
        <ele>166.1</ele>
      </trkpt>
      <trkpt lat="50.45865" lon="5.28457">
        <ele>165.1</ele>
      </trkpt>
      <trkpt lat="50.45893" lon="5.28432">
        <ele>163.2</ele>
      </trkpt>
      <trkpt lat="50.45971" lon="5.28353">
        <ele>163</ele>
      </trkpt>
      <trkpt lat="50.4604" lon="5.2828">
        <ele>162.5</ele>
      </trkpt>
      <trkpt lat="50.46063" lon="5.28253">
        <ele>163.6</ele>
      </trkpt>
      <trkpt lat="50.46074" lon="5.28238">
        <ele>163.7</ele>
      </trkpt>
      <trkpt lat="50.46121" lon="5.28167">
        <ele>162.3</ele>
      </trkpt>
      <trkpt lat="50.46173" lon="5.28081">
        <ele>160.1</ele>
        <extensions>
          <visugpx:TrkExtension xmlns:visugpx="https://www.visugpx.com/editgpx/">
            <visugpx:node>73</visugpx:node>
            </visugpx:TrkExtension>
        </extensions>
      </trkpt>
      <trkpt lat="50.4618" lon="5.28068">
        <ele>160.1</ele>
      </trkpt>
      <trkpt lat="50.46204" lon="5.28008">
        <ele>158.6</ele>
      </trkpt>
      <trkpt lat="50.46223" lon="5.27942">
        <ele>159</ele>
      </trkpt>
      <trkpt lat="50.46229" lon="5.27885">
        <ele>158.5</ele>
      </trkpt>
      <trkpt lat="50.46227" lon="5.27785">
        <ele>159.9</ele>
      </trkpt>
      <trkpt lat="50.46232" lon="5.2775">
        <ele>161.5</ele>
      </trkpt>
      <trkpt lat="50.46244" lon="5.27723">
        <ele>160.5</ele>
      </trkpt>
      <trkpt lat="50.46263" lon="5.27702">
        <ele>158.5</ele>
      </trkpt>
      <trkpt lat="50.46306" lon="5.27673">
        <ele>158</ele>
      </trkpt>
      <trkpt lat="50.46375" lon="5.27617">
        <ele>158</ele>
      </trkpt>
      <trkpt lat="50.46477" lon="5.27519">
        <ele>158.2</ele>
      </trkpt>
      <trkpt lat="50.46508" lon="5.27486">
        <ele>157.9</ele>
      </trkpt>
      <trkpt lat="50.46536" lon="5.27454">
        <ele>157.8</ele>
      </trkpt>
      <trkpt lat="50.46592" lon="5.27373">
        <ele>156.5</ele>
      </trkpt>
      <trkpt lat="50.4661" lon="5.2735">
        <ele>157.1</ele>
      </trkpt>
      <trkpt lat="50.4663" lon="5.27328">
        <ele>159</ele>
      </trkpt>
      <trkpt lat="50.46696" lon="5.2729">
        <ele>155.7</ele>
      </trkpt>
      <trkpt lat="50.46796" lon="5.27203">
        <ele>156.1</ele>
      </trkpt>
      <trkpt lat="50.46825" lon="5.27172">
        <ele>156.3</ele>
      </trkpt>
      <trkpt lat="50.46857" lon="5.27129">
        <ele>155.6</ele>
      </trkpt>
      <trkpt lat="50.46875" lon="5.27097">
        <ele>155.9</ele>
      </trkpt>
      <trkpt lat="50.46892" lon="5.27058">
        <ele>155.8</ele>
      </trkpt>
      <trkpt lat="50.46908" lon="5.27029">
        <ele>155.6</ele>
      </trkpt>
      <trkpt lat="50.46949" lon="5.26972">
        <ele>154.9</ele>
      </trkpt>
      <trkpt lat="50.47001" lon="5.26889">
        <ele>152.5</ele>
      </trkpt>
      <trkpt lat="50.47073" lon="5.26769">
        <ele>152.2</ele>
      </trkpt>
      <trkpt lat="50.47092" lon="5.26743">
        <ele>152.5</ele>
      </trkpt>
      <trkpt lat="50.47154" lon="5.26671">
        <ele>150.8</ele>
      </trkpt>
      <trkpt lat="50.47171" lon="5.26658">
        <ele>150.2</ele>
      </trkpt>
      <trkpt lat="50.47193" lon="5.26649">
        <ele>151</ele>
      </trkpt>
      <trkpt lat="50.47237" lon="5.26644">
        <ele>149.9</ele>
      </trkpt>
      <trkpt lat="50.47268" lon="5.26649">
        <ele>150.1</ele>
        <extensions>
          <visugpx:TrkExtension xmlns:visugpx="https://www.visugpx.com/editgpx/">
            <visugpx:node>74</visugpx:node>
            </visugpx:TrkExtension>
        </extensions>
      </trkpt>
      <trkpt lat="50.47302" lon="5.26656">
        <ele>148.3</ele>
      </trkpt>
      <trkpt lat="50.47316" lon="5.26661">
        <ele>147.8</ele>
      </trkpt>
      <trkpt lat="50.47328" lon="5.26669">
        <ele>148.1</ele>
      </trkpt>
      <trkpt lat="50.47343" lon="5.26679">
        <ele>148.8</ele>
      </trkpt>
      <trkpt lat="50.47404" lon="5.26732">
        <ele>146.8</ele>
      </trkpt>
      <trkpt lat="50.47435" lon="5.26755">
        <ele>147.5</ele>
      </trkpt>
      <trkpt lat="50.47462" lon="5.26771">
        <ele>146.8</ele>
        <extensions>
          <visugpx:TrkExtension xmlns:visugpx="https://www.visugpx.com/editgpx/">
            <visugpx:node>75</visugpx:node>
            </visugpx:TrkExtension>
        </extensions>
      </trkpt>
      <trkpt lat="50.47508" lon="5.26796">
        <ele>146.6</ele>
      </trkpt>
      <trkpt lat="50.47605" lon="5.26843">
        <ele>147.8</ele>
      </trkpt>
      <trkpt lat="50.47631" lon="5.26852">
        <ele>146.8</ele>
      </trkpt>
      <trkpt lat="50.47655" lon="5.26856">
        <ele>145.2</ele>
      </trkpt>
      <trkpt lat="50.47679" lon="5.26855">
        <ele>144.3</ele>
      </trkpt>
      <trkpt lat="50.47695" lon="5.2685">
        <ele>144</ele>
      </trkpt>
      <trkpt lat="50.47911" lon="5.26786">
        <ele>142.9</ele>
      </trkpt>
      <trkpt lat="50.47944" lon="5.26778">
        <ele>144</ele>
      </trkpt>
      <trkpt lat="50.47984" lon="5.26765">
        <ele>145.4</ele>
        <extensions>
          <visugpx:TrkExtension xmlns:visugpx="https://www.visugpx.com/editgpx/">
            <visugpx:node>76</visugpx:node>
            </visugpx:TrkExtension>
        </extensions>
      </trkpt>
      <trkpt lat="50.48029" lon="5.26747">
        <ele>141.6</ele>
      </trkpt>
      <trkpt lat="50.48096" lon="5.26715">
        <ele>141.5</ele>
      </trkpt>
      <trkpt lat="50.48115" lon="5.26704">
        <ele>141.9</ele>
      </trkpt>
      <trkpt lat="50.48131" lon="5.26693">
        <ele>141.2</ele>
      </trkpt>
      <trkpt lat="50.48155" lon="5.26667">
        <ele>141.3</ele>
      </trkpt>
      <trkpt lat="50.48165" lon="5.26652">
        <ele>142.2</ele>
      </trkpt>
      <trkpt lat="50.48186" lon="5.26604">
        <ele>141.8</ele>
      </trkpt>
      <trkpt lat="50.48205" lon="5.26521">
        <ele>145.4</ele>
      </trkpt>
      <trkpt lat="50.48218" lon="5.26492">
        <ele>142.9</ele>
      </trkpt>
      <trkpt lat="50.48226" lon="5.2648">
        <ele>142</ele>
      </trkpt>
      <trkpt lat="50.48235" lon="5.2647">
        <ele>141.2</ele>
      </trkpt>
      <trkpt lat="50.48245" lon="5.26463">
        <ele>141.5</ele>
      </trkpt>
      <trkpt lat="50.48294" lon="5.2644">
        <ele>140.5</ele>
      </trkpt>
      <trkpt lat="50.48319" lon="5.26424">
        <ele>140.4</ele>
      </trkpt>
      <trkpt lat="50.48346" lon="5.26402">
        <ele>139.2</ele>
      </trkpt>
      <trkpt lat="50.48399" lon="5.26345">
        <ele>138.9</ele>
      </trkpt>
      <trkpt lat="50.4842" lon="5.26327">
        <ele>139.2</ele>
      </trkpt>
      <trkpt lat="50.48466" lon="5.26293">
        <ele>140.2</ele>
      </trkpt>
      <trkpt lat="50.48494" lon="5.26267">
        <ele>138.5</ele>
      </trkpt>
      <trkpt lat="50.48508" lon="5.26248">
        <ele>138.2</ele>
      </trkpt>
      <trkpt lat="50.48509" lon="5.26244">
        <ele>138.1</ele>
      </trkpt>
      <trkpt lat="50.48519" lon="5.26226">
        <ele>137.8</ele>
      </trkpt>
      <trkpt lat="50.48529" lon="5.26202">
        <ele>137.3</ele>
      </trkpt>
      <trkpt lat="50.48538" lon="5.26175">
        <ele>137.1</ele>
      </trkpt>
      <trkpt lat="50.48548" lon="5.26133">
        <ele>136</ele>
      </trkpt>
      <trkpt lat="50.48568" lon="5.26032">
        <ele>134.9</ele>
      </trkpt>
      <trkpt lat="50.48577" lon="5.26006">
        <ele>135.1</ele>
      </trkpt>
      <trkpt lat="50.48583" lon="5.25994">
        <ele>135</ele>
      </trkpt>
      <trkpt lat="50.48593" lon="5.25977">
        <ele>136.9</ele>
      </trkpt>
      <trkpt lat="50.48603" lon="5.25963">
        <ele>136.4</ele>
      </trkpt>
      <trkpt lat="50.48615" lon="5.25951">
        <ele>135.6</ele>
      </trkpt>
      <trkpt lat="50.48641" lon="5.25933">
        <ele>134</ele>
      </trkpt>
      <trkpt lat="50.487" lon="5.25898">
        <ele>135</ele>
      </trkpt>
      <trkpt lat="50.48729" lon="5.25883">
        <ele>133.3</ele>
      </trkpt>
      <trkpt lat="50.48792" lon="5.25859">
        <ele>131.9</ele>
      </trkpt>
      <trkpt lat="50.4886" lon="5.25841">
        <ele>132.3</ele>
      </trkpt>
      <trkpt lat="50.48921" lon="5.25827">
        <ele>131.1</ele>
      </trkpt>
      <trkpt lat="50.49024" lon="5.25806">
        <ele>131.2</ele>
      </trkpt>
      <trkpt lat="50.49077" lon="5.25793">
        <ele>134.6</ele>
      </trkpt>
      <trkpt lat="50.49095" lon="5.25784">
        <ele>133.5</ele>
      </trkpt>
      <trkpt lat="50.49112" lon="5.25772">
        <ele>131.8</ele>
      </trkpt>
      <trkpt lat="50.49153" lon="5.25736">
        <ele>134</ele>
      </trkpt>
      <trkpt lat="50.4921" lon="5.25677">
        <ele>130.7</ele>
      </trkpt>
      <trkpt lat="50.49218" lon="5.25663">
        <ele>128.7</ele>
      </trkpt>
      <trkpt lat="50.49224" lon="5.25648">
        <ele>129.8</ele>
      </trkpt>
      <trkpt lat="50.49228" lon="5.25627">
        <ele>132.1</ele>
      </trkpt>
      <trkpt lat="50.49232" lon="5.25578">
        <ele>128.2</ele>
      </trkpt>
      <trkpt lat="50.49245" lon="5.25506">
        <ele>125</ele>
      </trkpt>
      <trkpt lat="50.49262" lon="5.25432">
        <ele>122.4</ele>
      </trkpt>
      <trkpt lat="50.49267" lon="5.25397">
        <ele>124.4</ele>
      </trkpt>
      <trkpt lat="50.49267" lon="5.25368">
        <ele>123.9</ele>
      </trkpt>
      <trkpt lat="50.4926" lon="5.25267">
        <ele>124.2</ele>
      </trkpt>
      <trkpt lat="50.49257" lon="5.25198">
        <ele>126.5</ele>
      </trkpt>
      <trkpt lat="50.49253" lon="5.25177">
        <ele>126</ele>
      </trkpt>
      <trkpt lat="50.49236" lon="5.25128">
        <ele>125.6</ele>
      </trkpt>
      <trkpt lat="50.49148" lon="5.2492">
        <ele>127.8</ele>
      </trkpt>
      <trkpt lat="50.49139" lon="5.24894">
        <ele>129</ele>
      </trkpt>
      <trkpt lat="50.49127" lon="5.24845">
        <ele>130.2</ele>
      </trkpt>
      <trkpt lat="50.49121" lon="5.24797">
        <ele>130</ele>
      </trkpt>
      <trkpt lat="50.49121" lon="5.24783">
        <ele>129.6</ele>
      </trkpt>
      <trkpt lat="50.49137" lon="5.24672">
        <ele>128.6</ele>
      </trkpt>
      <trkpt lat="50.49145" lon="5.24579">
        <ele>126.3</ele>
      </trkpt>
      <trkpt lat="50.49147" lon="5.24514">
        <ele>126.3</ele>
      </trkpt>
      <trkpt lat="50.49143" lon="5.2451">
        <ele>126.6</ele>
      </trkpt>
      <trkpt lat="50.49137" lon="5.24495">
        <ele>127.2</ele>
      </trkpt>
      <trkpt lat="50.49127" lon="5.24428">
        <ele>128.7</ele>
      </trkpt>
      <trkpt lat="50.49123" lon="5.24357">
        <ele>126.9</ele>
      </trkpt>
      <trkpt lat="50.49113" lon="5.24326">
        <ele>126.7</ele>
      </trkpt>
      <trkpt lat="50.49097" lon="5.24266">
        <ele>130.8</ele>
      </trkpt>
      <trkpt lat="50.4908" lon="5.24222">
        <ele>133.4</ele>
        <extensions>
          <visugpx:TrkExtension xmlns:visugpx="https://www.visugpx.com/editgpx/">
            <visugpx:node>77</visugpx:node>
            </visugpx:TrkExtension>
        </extensions>
      </trkpt>
      <trkpt lat="50.49062" lon="5.24121">
        <ele>133.5</ele>
        <extensions>
          <visugpx:TrkExtension xmlns:visugpx="https://www.visugpx.com/editgpx/">
            <visugpx:node>40</visugpx:node>
            </visugpx:TrkExtension>
        </extensions>
      </trkpt>
      <trkpt lat="50.49059" lon="5.24044">
        <ele>131.5</ele>
      </trkpt>
      <trkpt lat="50.4906" lon="5.23871">
        <ele>123</ele>
      </trkpt>
      <trkpt lat="50.49061" lon="5.23779">
        <ele>121</ele>
      </trkpt>
      <trkpt lat="50.49071" lon="5.23756">
        <ele>119.6</ele>
      </trkpt>
      <trkpt lat="50.49074" lon="5.23721">
        <ele>120.4</ele>
      </trkpt>
      <trkpt lat="50.49077" lon="5.23702">
        <ele>120.6</ele>
      </trkpt>
      <trkpt lat="50.49087" lon="5.23675">
        <ele>120</ele>
      </trkpt>
      <trkpt lat="50.49089" lon="5.23671">
        <ele>119.7</ele>
      </trkpt>
      <trkpt lat="50.49099" lon="5.23652">
        <ele>119.7</ele>
      </trkpt>
      <trkpt lat="50.49165" lon="5.23572">
        <ele>116.5</ele>
      </trkpt>
      <trkpt lat="50.49182" lon="5.23547">
        <ele>115.8</ele>
      </trkpt>
      <trkpt lat="50.49225" lon="5.23486">
        <ele>112.9</ele>
      </trkpt>
      <trkpt lat="50.49239" lon="5.23473">
        <ele>112.4</ele>
      </trkpt>
      <trkpt lat="50.49312" lon="5.23431">
        <ele>111.3</ele>
      </trkpt>
      <trkpt lat="50.49332" lon="5.23419">
        <ele>111</ele>
      </trkpt>
      <trkpt lat="50.49364" lon="5.23411">
        <ele>111.4</ele>
      </trkpt>
      <trkpt lat="50.49401" lon="5.2341">
        <ele>111.1</ele>
      </trkpt>
      <trkpt lat="50.49491" lon="5.23428">
        <ele>110.6</ele>
      </trkpt>
      <trkpt lat="50.49495" lon="5.2343">
        <ele>110.5</ele>
      </trkpt>
      <trkpt lat="50.49511" lon="5.23442">
        <ele>109.7</ele>
      </trkpt>
      <trkpt lat="50.49539" lon="5.23478">
        <ele>109.2</ele>
        <extensions>
          <visugpx:TrkExtension xmlns:visugpx="https://www.visugpx.com/editgpx/">
            <visugpx:node>41</visugpx:node>
            </visugpx:TrkExtension>
        </extensions>
      </trkpt>
      <trkpt lat="50.49558" lon="5.23502">
        <ele>109</ele>
      </trkpt>
      <trkpt lat="50.49618" lon="5.23586">
        <ele>108.5</ele>
      </trkpt>
      <trkpt lat="50.49644" lon="5.23644">
        <ele>109.8</ele>
      </trkpt>
      <trkpt lat="50.49654" lon="5.23698">
        <ele>110.3</ele>
      </trkpt>
      <trkpt lat="50.49656" lon="5.23735">
        <ele>110</ele>
      </trkpt>
      <trkpt lat="50.49656" lon="5.23774">
        <ele>109.5</ele>
      </trkpt>
      <trkpt lat="50.49645" lon="5.23916">
        <ele>109.6</ele>
      </trkpt>
      <trkpt lat="50.49646" lon="5.23951">
        <ele>109.9</ele>
      </trkpt>
      <trkpt lat="50.49656" lon="5.24006">
        <ele>109.6</ele>
      </trkpt>
      <trkpt lat="50.49672" lon="5.24061">
        <ele>108.5</ele>
      </trkpt>
      <trkpt lat="50.49683" lon="5.2409">
        <ele>107.6</ele>
      </trkpt>
      <trkpt lat="50.49697" lon="5.24116">
        <ele>105.1</ele>
      </trkpt>
      <trkpt lat="50.49718" lon="5.24144">
        <ele>103.7</ele>
      </trkpt>
      <trkpt lat="50.4975" lon="5.24172">
        <ele>102</ele>
      </trkpt>
      <trkpt lat="50.49778" lon="5.2418">
        <ele>101.7</ele>
      </trkpt>
      <trkpt lat="50.49814" lon="5.24178">
        <ele>102.6</ele>
      </trkpt>
      <trkpt lat="50.49833" lon="5.24165">
        <ele>101.6</ele>
      </trkpt>
      <trkpt lat="50.49883" lon="5.24106">
        <ele>104.9</ele>
      </trkpt>
      <trkpt lat="50.49915" lon="5.24068">
        <ele>103.5</ele>
      </trkpt>
      <trkpt lat="50.50048" lon="5.23918">
        <ele>99.4</ele>
      </trkpt>
      <trkpt lat="50.50178" lon="5.23777">
        <ele>96.4</ele>
      </trkpt>
      <trkpt lat="50.50191" lon="5.23809">
        <ele>95</ele>
      </trkpt>
      <trkpt lat="50.50207" lon="5.23876">
        <ele>92.8</ele>
      </trkpt>
      <trkpt lat="50.50253" lon="5.23863">
        <ele>90.9</ele>
      </trkpt>
      <trkpt lat="50.50263" lon="5.23868">
        <ele>90.5</ele>
      </trkpt>
      <trkpt lat="50.5027" lon="5.23898">
        <ele>89.5</ele>
      </trkpt>
      <trkpt lat="50.50276" lon="5.2392">
        <ele>88.8</ele>
      </trkpt>
      <trkpt lat="50.50277" lon="5.23924">
        <ele>89.8</ele>
      </trkpt>
      <trkpt lat="50.50278" lon="5.23929">
        <ele>91.2</ele>
      </trkpt>
      <trkpt lat="50.50288" lon="5.23921">
        <ele>91.5</ele>
      </trkpt>
      <trkpt lat="50.5032" lon="5.2388">
        <ele>90.2</ele>
      </trkpt>
      <trkpt lat="50.50331" lon="5.23867">
        <ele>90.2</ele>
      </trkpt>
      <trkpt lat="50.50361" lon="5.23838">
        <ele>89.3</ele>
      </trkpt>
      <trkpt lat="50.50412" lon="5.23807">
        <ele>89.2</ele>
      </trkpt>
      <trkpt lat="50.50455" lon="5.23808">
        <ele>89.6</ele>
      </trkpt>
      <trkpt lat="50.50533" lon="5.23796">
        <ele>89.1</ele>
      </trkpt>
      <trkpt lat="50.50553" lon="5.23787">
        <ele>89.4</ele>
      </trkpt>
      <trkpt lat="50.50583" lon="5.23763">
        <ele>89.4</ele>
      </trkpt>
      <trkpt lat="50.50598" lon="5.23753">
        <ele>89.8</ele>
      </trkpt>
      <trkpt lat="50.50627" lon="5.23741">
        <ele>91.5</ele>
      </trkpt>
      <trkpt lat="50.50662" lon="5.23725">
        <ele>93.2</ele>
      </trkpt>
      <trkpt lat="50.50677" lon="5.23716">
        <ele>96.2</ele>
      </trkpt>
      <trkpt lat="50.50716" lon="5.23676">
        <ele>100.7</ele>
      </trkpt>
      <trkpt lat="50.50725" lon="5.23675">
        <ele>102.6</ele>
      </trkpt>
      <trkpt lat="50.50733" lon="5.23679">
        <ele>101.7</ele>
      </trkpt>
      <trkpt lat="50.50735" lon="5.23684">
        <ele>102.1</ele>
      </trkpt>
      <trkpt lat="50.5074" lon="5.23692">
        <ele>101.9</ele>
      </trkpt>
      <trkpt lat="50.50814" lon="5.23879">
        <ele>90.2</ele>
      </trkpt>
      <trkpt lat="50.50814" lon="5.2388">
        <ele>90.3</ele>
      </trkpt>
      <trkpt lat="50.50828" lon="5.23952">
        <ele>87.5</ele>
      </trkpt>
      <trkpt lat="50.50842" lon="5.2398">
        <ele>85.9</ele>
      </trkpt>
      <trkpt lat="50.50862" lon="5.23992">
        <ele>82.7</ele>
      </trkpt>
      <trkpt lat="50.50878" lon="5.24002">
        <ele>82.5</ele>
      </trkpt>
      <trkpt lat="50.50887" lon="5.2398">
        <ele>82.7</ele>
      </trkpt>
      <trkpt lat="50.50899" lon="5.23979">
        <ele>82.4</ele>
      </trkpt>
      <trkpt lat="50.50904" lon="5.23974">
        <ele>82.4</ele>
      </trkpt>
      <trkpt lat="50.50909" lon="5.23965">
        <ele>82.3</ele>
      </trkpt>
      <trkpt lat="50.5091" lon="5.23943">
        <ele>82.2</ele>
      </trkpt>
      <trkpt lat="50.50914" lon="5.23933">
        <ele>82</ele>
      </trkpt>
      <trkpt lat="50.50916" lon="5.23929">
        <ele>82</ele>
      </trkpt>
      <trkpt lat="50.50922" lon="5.23938">
        <ele>81.9</ele>
      </trkpt>
      <trkpt lat="50.50929" lon="5.23942">
        <ele>81.6</ele>
      </trkpt>
      <trkpt lat="50.50937" lon="5.23941">
        <ele>81.4</ele>
      </trkpt>
      <trkpt lat="50.50939" lon="5.2394">
        <ele>81.5</ele>
      </trkpt>
      <trkpt lat="50.50945" lon="5.2394">
        <ele>81.3</ele>
      </trkpt>
      <trkpt lat="50.50986" lon="5.23934">
        <ele>81.8</ele>
      </trkpt>
      <trkpt lat="50.5103" lon="5.23921">
        <ele>83.9</ele>
      </trkpt>
      <trkpt lat="50.51043" lon="5.2392">
        <ele>82</ele>
      </trkpt>
      <trkpt lat="50.51054" lon="5.23919">
        <ele>80.3</ele>
      </trkpt>
      <trkpt lat="50.51071" lon="5.2392">
        <ele>80.4</ele>
      </trkpt>
      <trkpt lat="50.51095" lon="5.23924">
        <ele>80.1</ele>
      </trkpt>
      <trkpt lat="50.5116" lon="5.2394">
        <ele>79</ele>
      </trkpt>
      <trkpt lat="50.5117" lon="5.23939">
        <ele>79.2</ele>
      </trkpt>
      <trkpt lat="50.51179" lon="5.23939">
        <ele>79.2</ele>
      </trkpt>
      <trkpt lat="50.51239" lon="5.23931">
        <ele>77.6</ele>
      </trkpt>
      <trkpt lat="50.51309" lon="5.2391">
        <ele>78</ele>
      </trkpt>
      <trkpt lat="50.51326" lon="5.23905">
        <ele>78</ele>
      </trkpt>
      <trkpt lat="50.51347" lon="5.23899">
        <ele>77.5</ele>
      </trkpt>
      <trkpt lat="50.51349" lon="5.23898">
        <ele>77.4</ele>
      </trkpt>
      <trkpt lat="50.51404" lon="5.23885">
        <ele>77</ele>
      </trkpt>
      <trkpt lat="50.51444" lon="5.23881">
        <ele>76</ele>
      </trkpt>
      <trkpt lat="50.51453" lon="5.23881">
        <ele>76</ele>
      </trkpt>
      <trkpt lat="50.51495" lon="5.23885">
        <ele>76.2</ele>
      </trkpt>
      <trkpt lat="50.51512" lon="5.23888">
        <ele>75.6</ele>
      </trkpt>
      <trkpt lat="50.51535" lon="5.23892">
        <ele>74.9</ele>
      </trkpt>
      <trkpt lat="50.5154" lon="5.23896">
        <ele>74.7</ele>
      </trkpt>
      <trkpt lat="50.5159" lon="5.23938">
        <ele>74.2</ele>
      </trkpt>
      <trkpt lat="50.51609" lon="5.23956">
        <ele>73.2</ele>
      </trkpt>
      <trkpt lat="50.51621" lon="5.2397">
        <ele>72.8</ele>
      </trkpt>
      <trkpt lat="50.51636" lon="5.23997">
        <ele>73.9</ele>
      </trkpt>
      <trkpt lat="50.51643" lon="5.2401">
        <ele>73.6</ele>
      </trkpt>
      <trkpt lat="50.5165" lon="5.24023">
        <ele>73.2</ele>
      </trkpt>
      <trkpt lat="50.51651" lon="5.24026">
        <ele>73.1</ele>
      </trkpt>
      <trkpt lat="50.51651" lon="5.2403">
        <ele>73</ele>
      </trkpt>
      <trkpt lat="50.51656" lon="5.24041">
        <ele>73</ele>
      </trkpt>
      <trkpt lat="50.51658" lon="5.24042">
        <ele>73</ele>
      </trkpt>
      <trkpt lat="50.51662" lon="5.24043">
        <ele>73</ele>
      </trkpt>
      <trkpt lat="50.51665" lon="5.24041">
        <ele>73</ele>
      </trkpt>
      <trkpt lat="50.51668" lon="5.24038">
        <ele>73</ele>
      </trkpt>
      <trkpt lat="50.51669" lon="5.24035">
        <ele>73</ele>
      </trkpt>
      <trkpt lat="50.5167" lon="5.24032">
        <ele>73</ele>
      </trkpt>
      <trkpt lat="50.51671" lon="5.24028">
        <ele>73</ele>
      </trkpt>
      <trkpt lat="50.51694" lon="5.24027">
        <ele>73</ele>
      </trkpt>
      <trkpt lat="50.51714" lon="5.24027">
        <ele>73</ele>
        <extensions>
          <visugpx:TrkExtension xmlns:visugpx="https://www.visugpx.com/editgpx/">
            <visugpx:node>42</visugpx:node>
            </visugpx:TrkExtension>
        </extensions>
      </trkpt>
      <trkpt lat="50.51723" lon="5.24027">
        <ele>73</ele>
      </trkpt>
      <trkpt lat="50.51728" lon="5.24027">
        <ele>73</ele>
      </trkpt>
      <trkpt lat="50.51739" lon="5.24023">
        <ele>73</ele>
      </trkpt>
      <trkpt lat="50.51743" lon="5.24022">
        <ele>73</ele>
      </trkpt>
      <trkpt lat="50.5176" lon="5.24017">
        <ele>72.6</ele>
      </trkpt>
      <trkpt lat="50.51778" lon="5.24005">
        <ele>72</ele>
      </trkpt>
      <trkpt lat="50.51795" lon="5.23995">
        <ele>72.1</ele>
      </trkpt>
      <trkpt lat="50.51801" lon="5.23992">
        <ele>72</ele>
      </trkpt>
      <trkpt lat="50.51814" lon="5.23985">
        <ele>72</ele>
      </trkpt>
      <trkpt lat="50.51827" lon="5.23977">
        <ele>72</ele>
      </trkpt>
      <trkpt lat="50.51853" lon="5.23965">
        <ele>72.1</ele>
      </trkpt>
      <trkpt lat="50.51868" lon="5.23959">
        <ele>72.4</ele>
      </trkpt>
      <trkpt lat="50.51878" lon="5.23955">
        <ele>72.2</ele>
      </trkpt>
      <trkpt lat="50.51883" lon="5.23953">
        <ele>72.1</ele>
      </trkpt>
      <trkpt lat="50.51891" lon="5.2395">
        <ele>72.1</ele>
      </trkpt>
      <trkpt lat="50.51903" lon="5.23945">
        <ele>72.5</ele>
      </trkpt>
      <trkpt lat="50.51919" lon="5.23934">
        <ele>73.1</ele>
      </trkpt>
      <trkpt lat="50.51932" lon="5.23919">
        <ele>73.6</ele>
      </trkpt>
      <trkpt lat="50.51938" lon="5.23911">
        <ele>73.8</ele>
      </trkpt>
      <trkpt lat="50.51941" lon="5.23904">
        <ele>73.9</ele>
      </trkpt>
      <trkpt lat="50.51954" lon="5.23871">
        <ele>74.7</ele>
      </trkpt>
      <trkpt lat="50.5196" lon="5.23861">
        <ele>75.6</ele>
      </trkpt>
      <trkpt lat="50.51963" lon="5.23862">
        <ele>75.6</ele>
      </trkpt>
      <trkpt lat="50.51966" lon="5.23861">
        <ele>75.8</ele>
      </trkpt>
      <trkpt lat="50.51969" lon="5.23859">
        <ele>75.8</ele>
      </trkpt>
      <trkpt lat="50.51972" lon="5.23853">
        <ele>75.4</ele>
      </trkpt>
      <trkpt lat="50.51972" lon="5.23847">
        <ele>75</ele>
      </trkpt>
      <trkpt lat="50.51972" lon="5.23843">
        <ele>74.7</ele>
      </trkpt>
      <trkpt lat="50.51971" lon="5.23841">
        <ele>74.6</ele>
      </trkpt>
      <trkpt lat="50.51969" lon="5.23835">
        <ele>74.3</ele>
      </trkpt>
      <trkpt lat="50.51971" lon="5.23828">
        <ele>73.3</ele>
      </trkpt>
      <trkpt lat="50.51974" lon="5.23821">
        <ele>72.1</ele>
      </trkpt>
      <trkpt lat="50.51999" lon="5.23761">
        <ele>71</ele>
      </trkpt>
      <trkpt lat="50.52014" lon="5.23725">
        <ele>71</ele>
      </trkpt>
      <trkpt lat="50.52031" lon="5.23686">
        <ele>73.5</ele>
      </trkpt>
      <trkpt lat="50.52038" lon="5.23668">
        <ele>75.9</ele>
      </trkpt>
      <trkpt lat="50.52052" lon="5.23682">
        <ele>75.7</ele>
        <extensions>
          <visugpx:TrkExtension xmlns:visugpx="https://www.visugpx.com/editgpx/">
            <visugpx:node>78</visugpx:node>
            </visugpx:TrkExtension>
        </extensions>
      </trkpt>
      <trkpt lat="50.52081" lon="5.23716">
        <ele>72.7</ele>
      </trkpt>
      <trkpt lat="50.52101" lon="5.23731">
        <ele>71.5</ele>
      </trkpt>
      <trkpt lat="50.52127" lon="5.23749">
        <ele>71</ele>
      </trkpt>
      <trkpt lat="50.5215" lon="5.2376">
        <ele>71</ele>
      </trkpt>
      <trkpt lat="50.52421" lon="5.23886">
        <ele>71</ele>
      </trkpt>
      <trkpt lat="50.52627" lon="5.23977">
        <ele>71.1</ele>
        <extensions>
          <visugpx:TrkExtension xmlns:visugpx="https://www.visugpx.com/editgpx/">
            <visugpx:node>79</visugpx:node>
            </visugpx:TrkExtension>
        </extensions>
      </trkpt>
      <trkpt lat="50.52761" lon="5.24041">
        <ele>71</ele>
      </trkpt>
      <trkpt lat="50.52874" lon="5.2409">
        <ele>71</ele>
      </trkpt>
      <trkpt lat="50.53001" lon="5.24148">
        <ele>71</ele>
      </trkpt>
      <trkpt lat="50.53053" lon="5.2418">
        <ele>71</ele>
      </trkpt>
      <trkpt lat="50.53077" lon="5.24196">
        <ele>71</ele>
      </trkpt>
      <trkpt lat="50.53105" lon="5.24218">
        <ele>71.1</ele>
      </trkpt>
      <trkpt lat="50.53141" lon="5.24243">
        <ele>71.3</ele>
      </trkpt>
      <trkpt lat="50.53142" lon="5.2425">
        <ele>71.1</ele>
      </trkpt>
      <trkpt lat="50.53146" lon="5.24255">
        <ele>71.2</ele>
      </trkpt>
      <trkpt lat="50.5315" lon="5.24257">
        <ele>71.3</ele>
      </trkpt>
      <trkpt lat="50.53171" lon="5.24288">
        <ele>71.3</ele>
      </trkpt>
      <trkpt lat="50.53229" lon="5.24362">
        <ele>71.2</ele>
      </trkpt>
      <trkpt lat="50.53261" lon="5.24407">
        <ele>71.5</ele>
      </trkpt>
      <trkpt lat="50.53296" lon="5.24461">
        <ele>71.5</ele>
      </trkpt>
      <trkpt lat="50.53322" lon="5.24507">
        <ele>71.9</ele>
      </trkpt>
      <trkpt lat="50.53349" lon="5.24565">
        <ele>72.3</ele>
      </trkpt>
      <trkpt lat="50.53396" lon="5.2468">
        <ele>72.1</ele>
      </trkpt>
      <trkpt lat="50.53458" lon="5.24864">
        <ele>72.2</ele>
      </trkpt>
      <trkpt lat="50.5352" lon="5.25076">
        <ele>72.1</ele>
      </trkpt>
      <trkpt lat="50.53566" lon="5.2524">
        <ele>72</ele>
        <extensions>
          <visugpx:TrkExtension xmlns:visugpx="https://www.visugpx.com/editgpx/">
            <visugpx:node>80</visugpx:node>
            </visugpx:TrkExtension>
        </extensions>
      </trkpt>
      <trkpt lat="50.53655" lon="5.25552">
        <ele>71.7</ele>
      </trkpt>
      <trkpt lat="50.53672" lon="5.25618">
        <ele>71.2</ele>
      </trkpt>
      <trkpt lat="50.53761" lon="5.26064">
        <ele>71.2</ele>
      </trkpt>
      <trkpt lat="50.53769" lon="5.26116">
        <ele>71.4</ele>
      </trkpt>
      <trkpt lat="50.53775" lon="5.26183">
        <ele>71.3</ele>
      </trkpt>
      <trkpt lat="50.53776" lon="5.26222">
        <ele>71</ele>
      </trkpt>
      <trkpt lat="50.53771" lon="5.26322">
        <ele>71.2</ele>
      </trkpt>
      <trkpt lat="50.5375" lon="5.2648">
        <ele>71</ele>
      </trkpt>
      <trkpt lat="50.53747" lon="5.26545">
        <ele>70.9</ele>
      </trkpt>
      <trkpt lat="50.5375" lon="5.26639">
        <ele>71</ele>
      </trkpt>
      <trkpt lat="50.53751" lon="5.26656">
        <ele>70.5</ele>
      </trkpt>
      <trkpt lat="50.53755" lon="5.26681">
        <ele>70.6</ele>
      </trkpt>
      <trkpt lat="50.53752" lon="5.26693">
        <ele>70.1</ele>
      </trkpt>
      <trkpt lat="50.53752" lon="5.26704">
        <ele>70.1</ele>
      </trkpt>
      <trkpt lat="50.53764" lon="5.26894">
        <ele>70.1</ele>
      </trkpt>
      <trkpt lat="50.53766" lon="5.27">
        <ele>71.1</ele>
      </trkpt>
      <trkpt lat="50.53764" lon="5.27223">
        <ele>70</ele>
      </trkpt>
      <trkpt lat="50.53764" lon="5.27517">
        <ele>70</ele>
      </trkpt>
      <trkpt lat="50.53761" lon="5.27563">
        <ele>70</ele>
      </trkpt>
      <trkpt lat="50.53746" lon="5.27765">
        <ele>69.1</ele>
      </trkpt>
      <trkpt lat="50.53727" lon="5.27986">
        <ele>70.1</ele>
        <extensions>
          <visugpx:TrkExtension xmlns:visugpx="https://www.visugpx.com/editgpx/">
            <visugpx:node>81</visugpx:node>
            </visugpx:TrkExtension>
        </extensions>
      </trkpt>
      <trkpt lat="50.53717" lon="5.28108">
        <ele>71.2</ele>
      </trkpt>
      <trkpt lat="50.53686" lon="5.28331">
        <ele>73</ele>
      </trkpt>
      <trkpt lat="50.53656" lon="5.28503">
        <ele>72.3</ele>
      </trkpt>
      <trkpt lat="50.5364" lon="5.28581">
        <ele>72.8</ele>
      </trkpt>
      <trkpt lat="50.5361" lon="5.28647">
        <ele>71.6</ele>
      </trkpt>
      <trkpt lat="50.53587" lon="5.28725">
        <ele>70.8</ele>
      </trkpt>
      <trkpt lat="50.5356" lon="5.28859">
        <ele>70</ele>
      </trkpt>
      <trkpt lat="50.53552" lon="5.28943">
        <ele>70</ele>
      </trkpt>
      <trkpt lat="50.5354" lon="5.29031">
        <ele>71</ele>
      </trkpt>
      <trkpt lat="50.53484" lon="5.29331">
        <ele>70</ele>
      </trkpt>
      <trkpt lat="50.53484" lon="5.29344">
        <ele>70</ele>
        <extensions>
          <visugpx:TrkExtension xmlns:visugpx="https://www.visugpx.com/editgpx/">
            <visugpx:node>82</visugpx:node>
            </visugpx:TrkExtension>
        </extensions>
      </trkpt>
      <trkpt lat="50.53484" lon="5.29348">
        <ele>70</ele>
      </trkpt>
      <trkpt lat="50.53488" lon="5.29354">
        <ele>70</ele>
      </trkpt>
      <trkpt lat="50.53485" lon="5.29365">
        <ele>70.1</ele>
      </trkpt>
      <trkpt lat="50.53487" lon="5.2938">
        <ele>70.4</ele>
      </trkpt>
      <trkpt lat="50.53494" lon="5.29398">
        <ele>70.5</ele>
      </trkpt>
      <trkpt lat="50.53505" lon="5.2941">
        <ele>70.2</ele>
      </trkpt>
      <trkpt lat="50.53515" lon="5.29411">
        <ele>70.1</ele>
      </trkpt>
      <trkpt lat="50.53578" lon="5.29395">
        <ele>70.2</ele>
      </trkpt>
      <trkpt lat="50.53592" lon="5.29396">
        <ele>70.4</ele>
      </trkpt>
      <trkpt lat="50.53602" lon="5.29403">
        <ele>70.5</ele>
      </trkpt>
      <trkpt lat="50.53609" lon="5.29413">
        <ele>70.2</ele>
      </trkpt>
      <trkpt lat="50.53705" lon="5.29644">
        <ele>71</ele>
        <extensions>
          <visugpx:TrkExtension xmlns:visugpx="https://www.visugpx.com/editgpx/">
            <visugpx:node>83</visugpx:node>
            </visugpx:TrkExtension>
        </extensions>
      </trkpt>
      <trkpt lat="50.53712" lon="5.29655">
        <ele>71</ele>
      </trkpt>
      <trkpt lat="50.53731" lon="5.29714">
        <ele>71</ele>
      </trkpt>
      <trkpt lat="50.53737" lon="5.29755">
        <ele>71</ele>
      </trkpt>
      <trkpt lat="50.53751" lon="5.29923">
        <ele>71</ele>
      </trkpt>
      <trkpt lat="50.5377" lon="5.30053">
        <ele>71</ele>
        <extensions>
          <visugpx:TrkExtension xmlns:visugpx="https://www.visugpx.com/editgpx/">
            <visugpx:node>84</visugpx:node>
            </visugpx:TrkExtension>
        </extensions>
      </trkpt>
      <trkpt lat="50.53954" lon="5.2995">
        <ele>71</ele>
        <extensions>
          <visugpx:TrkExtension xmlns:visugpx="https://www.visugpx.com/editgpx/">
            <visugpx:node>85</visugpx:node>
            </visugpx:TrkExtension>
        </extensions>
      </trkpt>
      <trkpt lat="50.53964" lon="5.29944">
        <ele>71</ele>
      </trkpt>
      <trkpt lat="50.53989" lon="5.30011">
        <ele>70.4</ele>
      </trkpt>
      <trkpt lat="50.54003" lon="5.30041">
        <ele>70</ele>
      </trkpt>
      <trkpt lat="50.54027" lon="5.30101">
        <ele>70.6</ele>
        <extensions>
          <visugpx:TrkExtension xmlns:visugpx="https://www.visugpx.com/editgpx/">
            <visugpx:node>86</visugpx:node>
            </visugpx:TrkExtension>
        </extensions>
      </trkpt>
      <trkpt lat="50.54034" lon="5.30123">
        <ele>70.9</ele>
      </trkpt>
      <trkpt lat="50.54035" lon="5.30152">
        <ele>71</ele>
        <extensions>
          <visugpx:TrkExtension xmlns:visugpx="https://www.visugpx.com/editgpx/">
            <visugpx:node>87</visugpx:node>
            </visugpx:TrkExtension>
        </extensions>
      </trkpt>
      <trkpt lat="50.54058" lon="5.30297">
        <ele>70.9</ele>
      </trkpt>
      <trkpt lat="50.54091" lon="5.30574">
        <ele>70</ele>
      </trkpt>
      <trkpt lat="50.54129" lon="5.30787">
        <ele>70.2</ele>
      </trkpt>
      <trkpt lat="50.54198" lon="5.31102">
        <ele>70</ele>
      </trkpt>
      <trkpt lat="50.54273" lon="5.31354">
        <ele>70.8</ele>
      </trkpt>
      <trkpt lat="50.54409" lon="5.31738">
        <ele>70</ele>
      </trkpt>
      <trkpt lat="50.54537" lon="5.31999">
        <ele>69.6</ele>
        <extensions>
          <visugpx:TrkExtension xmlns:visugpx="https://www.visugpx.com/editgpx/">
            <visugpx:node>88</visugpx:node>
            </visugpx:TrkExtension>
        </extensions>
      </trkpt>
      <trkpt lat="50.54552" lon="5.32023">
        <ele>69.3</ele>
      </trkpt>
      <trkpt lat="50.54564" lon="5.32066">
        <ele>69.1</ele>
      </trkpt>
      <trkpt lat="50.54576" lon="5.32122">
        <ele>69.3</ele>
      </trkpt>
      <trkpt lat="50.54588" lon="5.32169">
        <ele>70</ele>
      </trkpt>
      <trkpt lat="50.54607" lon="5.32169">
        <ele>70</ele>
      </trkpt>
      <trkpt lat="50.54601" lon="5.32255">
        <ele>69.1</ele>
      </trkpt>
      <trkpt lat="50.54607" lon="5.32272">
        <ele>69.7</ele>
      </trkpt>
      <trkpt lat="50.54627" lon="5.32401">
        <ele>68.7</ele>
      </trkpt>
      <trkpt lat="50.54649" lon="5.32478">
        <ele>68.7</ele>
      </trkpt>
      <trkpt lat="50.5467" lon="5.32519">
        <ele>68.9</ele>
        <extensions>
          <visugpx:TrkExtension xmlns:visugpx="https://www.visugpx.com/editgpx/">
            <visugpx:node>89</visugpx:node>
            </visugpx:TrkExtension>
        </extensions>
      </trkpt>
      <trkpt lat="50.54681" lon="5.32538">
        <ele>68.3</ele>
      </trkpt>
      <trkpt lat="50.5475" lon="5.32613">
        <ele>68</ele>
      </trkpt>
      <trkpt lat="50.54805" lon="5.32662">
        <ele>68</ele>
      </trkpt>
      <trkpt lat="50.54848" lon="5.32705">
        <ele>68.5</ele>
        <extensions>
          <visugpx:TrkExtension xmlns:visugpx="https://www.visugpx.com/editgpx/">
            <visugpx:node>90</visugpx:node>
            </visugpx:TrkExtension>
        </extensions>
      </trkpt>
      <trkpt lat="50.5503" lon="5.32882">
        <ele>68</ele>
      </trkpt>
      <trkpt lat="50.55068" lon="5.32926">
        <ele>68</ele>
      </trkpt>
      <trkpt lat="50.55131" lon="5.32972">
        <ele>68</ele>
        <extensions>
          <visugpx:TrkExtension xmlns:visugpx="https://www.visugpx.com/editgpx/">
            <visugpx:node>91</visugpx:node>
            </visugpx:TrkExtension>
        </extensions>
      </trkpt>
      <trkpt lat="50.55189" lon="5.3302">
        <ele>68</ele>
      </trkpt>
      <trkpt lat="50.55194" lon="5.33023">
        <ele>68</ele>
      </trkpt>
      <trkpt lat="50.55265" lon="5.33084">
        <ele>69</ele>
      </trkpt>
      <trkpt lat="50.55297" lon="5.33114">
        <ele>69</ele>
        <extensions>
          <visugpx:TrkExtension xmlns:visugpx="https://www.visugpx.com/editgpx/">
            <visugpx:node>92</visugpx:node>
            </visugpx:TrkExtension>
        </extensions>
      </trkpt>
      <trkpt lat="50.5538" lon="5.32939">
        <ele>71.9</ele>
      </trkpt>
      <trkpt lat="50.55386" lon="5.32949">
        <ele>71.8</ele>
        <extensions>
          <visugpx:TrkExtension xmlns:visugpx="https://www.visugpx.com/editgpx/">
            <visugpx:node>93</visugpx:node>
            </visugpx:TrkExtension>
        </extensions>
      </trkpt>
      <trkpt lat="50.55521" lon="5.33194">
        <ele>71.5</ele>
      </trkpt>
      <trkpt lat="50.55554" lon="5.33239">
        <ele>72.1</ele>
      </trkpt>
      <trkpt lat="50.55592" lon="5.33282">
        <ele>73.2</ele>
      </trkpt>
      <trkpt lat="50.55616" lon="5.33317">
        <ele>73.6</ele>
      </trkpt>
      <trkpt lat="50.55642" lon="5.33364">
        <ele>72.7</ele>
      </trkpt>
      <trkpt lat="50.55705" lon="5.33493">
        <ele>70.9</ele>
        <extensions>
          <visugpx:TrkExtension xmlns:visugpx="https://www.visugpx.com/editgpx/">
            <visugpx:node>94</visugpx:node>
            </visugpx:TrkExtension>
        </extensions>
      </trkpt>
      <trkpt lat="50.55907" lon="5.33911">
        <ele>69.1</ele>
      </trkpt>
      <trkpt lat="50.55924" lon="5.33938">
        <ele>69.6</ele>
        <extensions>
          <visugpx:TrkExtension xmlns:visugpx="https://www.visugpx.com/editgpx/">
            <visugpx:node>95</visugpx:node>
            </visugpx:TrkExtension>
        </extensions>
      </trkpt>
      <trkpt lat="50.55931" lon="5.33948">
        <ele>69.5</ele>
      </trkpt>
      <trkpt lat="50.55968" lon="5.3398">
        <ele>70</ele>
      </trkpt>
      <trkpt lat="50.5599" lon="5.34007">
        <ele>71.2</ele>
      </trkpt>
      <trkpt lat="50.56026" lon="5.34093">
        <ele>71.1</ele>
      </trkpt>
      <trkpt lat="50.56046" lon="5.34152">
        <ele>72.3</ele>
      </trkpt>
      <trkpt lat="50.56178" lon="5.34509">
        <ele>80.1</ele>
      </trkpt>
      <trkpt lat="50.56259" lon="5.3474">
        <ele>70.9</ele>
      </trkpt>
      <trkpt lat="50.5634" lon="5.34977">
        <ele>71.3</ele>
        <extensions>
          <visugpx:TrkExtension xmlns:visugpx="https://www.visugpx.com/editgpx/">
            <visugpx:node>96</visugpx:node>
            </visugpx:TrkExtension>
        </extensions>
      </trkpt>
      <trkpt lat="50.56424" lon="5.35246">
        <ele>70.5</ele>
      </trkpt>
      <trkpt lat="50.56485" lon="5.35458">
        <ele>73.5</ele>
        <extensions>
          <visugpx:TrkExtension xmlns:visugpx="https://www.visugpx.com/editgpx/">
            <visugpx:node>97</visugpx:node>
            </visugpx:TrkExtension>
        </extensions>
      </trkpt>
      <trkpt lat="50.56516" lon="5.35563">
        <ele>74</ele>
      </trkpt>
      <trkpt lat="50.56568" lon="5.35729">
        <ele>72.6</ele>
      </trkpt>
      <trkpt lat="50.56592" lon="5.35813">
        <ele>73.2</ele>
        <extensions>
          <visugpx:TrkExtension xmlns:visugpx="https://www.visugpx.com/editgpx/">
            <visugpx:node>98</visugpx:node>
            </visugpx:TrkExtension>
        </extensions>
      </trkpt>
      <trkpt lat="50.56676" lon="5.36114">
        <ele>71.3</ele>
      </trkpt>
      <trkpt lat="50.56703" lon="5.3625">
        <ele>71.6</ele>
        <extensions>
          <visugpx:TrkExtension xmlns:visugpx="https://www.visugpx.com/editgpx/">
            <visugpx:node>99</visugpx:node>
            </visugpx:TrkExtension>
        </extensions>
      </trkpt>
      <trkpt lat="50.56756" lon="5.36526">
        <ele>73.3</ele>
      </trkpt>
      <trkpt lat="50.56768" lon="5.36573">
        <ele>75.1</ele>
      </trkpt>
      <trkpt lat="50.56809" lon="5.36719">
        <ele>72.8</ele>
      </trkpt>
      <trkpt lat="50.56843" lon="5.36851">
        <ele>72.7</ele>
      </trkpt>
      <trkpt lat="50.56894" lon="5.37064">
        <ele>70.4</ele>
        <extensions>
          <visugpx:TrkExtension xmlns:visugpx="https://www.visugpx.com/editgpx/">
            <visugpx:node>100</visugpx:node>
            </visugpx:TrkExtension>
        </extensions>
      </trkpt>
      <trkpt lat="50.56917" lon="5.37159">
        <ele>69</ele>
      </trkpt>
      <trkpt lat="50.56944" lon="5.37241">
        <ele>70</ele>
      </trkpt>
      <trkpt lat="50.57084" lon="5.37646">
        <ele>71.4</ele>
      </trkpt>
      <trkpt lat="50.57109" lon="5.37727">
        <ele>70.8</ele>
      </trkpt>
      <trkpt lat="50.57125" lon="5.37773">
        <ele>70.9</ele>
      </trkpt>
      <trkpt lat="50.57156" lon="5.37843">
        <ele>72</ele>
      </trkpt>
      <trkpt lat="50.57179" lon="5.37885">
        <ele>73.1</ele>
      </trkpt>
      <trkpt lat="50.57235" lon="5.38005">
        <ele>73.2</ele>
      </trkpt>
      <trkpt lat="50.57302" lon="5.38181">
        <ele>77.9</ele>
      </trkpt>
      <trkpt lat="50.57314" lon="5.38208">
        <ele>78.8</ele>
      </trkpt>
      <trkpt lat="50.57342" lon="5.38265">
        <ele>78</ele>
      </trkpt>
      <trkpt lat="50.57385" lon="5.38346">
        <ele>80.2</ele>
      </trkpt>
      <trkpt lat="50.57562" lon="5.3864">
        <ele>82.5</ele>
      </trkpt>
      <trkpt lat="50.57587" lon="5.38685">
        <ele>82.5</ele>
      </trkpt>
      <trkpt lat="50.5767" lon="5.38849">
        <ele>81.9</ele>
      </trkpt>
      <trkpt lat="50.57799" lon="5.3907">
        <ele>82.3</ele>
      </trkpt>
      <trkpt lat="50.57844" lon="5.39142">
        <ele>85.1</ele>
      </trkpt>
      <trkpt lat="50.57861" lon="5.39181">
        <ele>83.4</ele>
      </trkpt>
      <trkpt lat="50.57866" lon="5.39196">
        <ele>84.2</ele>
      </trkpt>
      <trkpt lat="50.57872" lon="5.39232">
        <ele>80.3</ele>
      </trkpt>
      <trkpt lat="50.57871" lon="5.39334">
        <ele>78.6</ele>
      </trkpt>
      <trkpt lat="50.57874" lon="5.39354">
        <ele>78</ele>
      </trkpt>
      <trkpt lat="50.57878" lon="5.39371">
        <ele>77.7</ele>
      </trkpt>
      <trkpt lat="50.57892" lon="5.39408">
        <ele>78.9</ele>
      </trkpt>
      <trkpt lat="50.57939" lon="5.39518">
        <ele>74.6</ele>
      </trkpt>
      <trkpt lat="50.5795" lon="5.39551">
        <ele>73.7</ele>
      </trkpt>
      <trkpt lat="50.57953" lon="5.39569">
        <ele>73.7</ele>
      </trkpt>
      <trkpt lat="50.57954" lon="5.39588">
        <ele>74</ele>
      </trkpt>
      <trkpt lat="50.57953" lon="5.39622">
        <ele>72.7</ele>
      </trkpt>
      <trkpt lat="50.57941" lon="5.39668">
        <ele>69.8</ele>
      </trkpt>
      <trkpt lat="50.57925" lon="5.39697">
        <ele>68.9</ele>
      </trkpt>
      <trkpt lat="50.5789" lon="5.39751">
        <ele>68</ele>
      </trkpt>
      <trkpt lat="50.57886" lon="5.39743">
        <ele>68.2</ele>
      </trkpt>
      <trkpt lat="50.57879" lon="5.3974">
        <ele>68.2</ele>
      </trkpt>
      <trkpt lat="50.57872" lon="5.39743">
        <ele>68.1</ele>
      </trkpt>
      <trkpt lat="50.57867" lon="5.3975">
        <ele>68</ele>
      </trkpt>
      <trkpt lat="50.57864" lon="5.3976">
        <ele>68</ele>
      </trkpt>
      <trkpt lat="50.57866" lon="5.39771">
        <ele>68</ele>
      </trkpt>
      <trkpt lat="50.57871" lon="5.39779">
        <ele>68</ele>
      </trkpt>
      <trkpt lat="50.57877" lon="5.39782">
        <ele>68</ele>
      </trkpt>
      <trkpt lat="50.57886" lon="5.39779">
        <ele>68</ele>
        <extensions>
          <visugpx:TrkExtension xmlns:visugpx="https://www.visugpx.com/editgpx/">
            <visugpx:node>101</visugpx:node>
            </visugpx:TrkExtension>
        </extensions>
      </trkpt>
      <trkpt lat="50.58019" lon="5.40168">
        <ele>67.7</ele>
      </trkpt>
      <trkpt lat="50.58036" lon="5.40233">
        <ele>67.7</ele>
      </trkpt>
      <trkpt lat="50.58044" lon="5.40256">
        <ele>67.3</ele>
      </trkpt>
      <trkpt lat="50.5806" lon="5.4029">
        <ele>67.2</ele>
      </trkpt>
      <trkpt lat="50.58096" lon="5.40388">
        <ele>67.4</ele>
      </trkpt>
      <trkpt lat="50.58165" lon="5.4056">
        <ele>67.7</ele>
      </trkpt>
      <trkpt lat="50.58275" lon="5.40859">
        <ele>67.9</ele>
      </trkpt>
      <trkpt lat="50.58328" lon="5.40991">
        <ele>69.1</ele>
      </trkpt>
      <trkpt lat="50.58351" lon="5.41045">
        <ele>69.6</ele>
      </trkpt>
      <trkpt lat="50.5838" lon="5.41105">
        <ele>69.8</ele>
      </trkpt>
      <trkpt lat="50.5841" lon="5.41165">
        <ele>69.8</ele>
      </trkpt>
      <trkpt lat="50.58443" lon="5.41226">
        <ele>69</ele>
      </trkpt>
      <trkpt lat="50.58573" lon="5.41441">
        <ele>68</ele>
      </trkpt>
      <trkpt lat="50.58592" lon="5.41476">
        <ele>68</ele>
      </trkpt>
      <trkpt lat="50.586" lon="5.41493">
        <ele>68</ele>
      </trkpt>
      <trkpt lat="50.58605" lon="5.41509">
        <ele>68</ele>
      </trkpt>
      <trkpt lat="50.58613" lon="5.41561">
        <ele>67.1</ele>
        <extensions>
          <visugpx:TrkExtension xmlns:visugpx="https://www.visugpx.com/editgpx/">
            <visugpx:node>102</visugpx:node>
            </visugpx:TrkExtension>
        </extensions>
      </trkpt>
      <trkpt lat="50.58614" lon="5.41575">
        <ele>67.1</ele>
      </trkpt>
      <trkpt lat="50.58625" lon="5.41573">
        <ele>67.7</ele>
      </trkpt>
      <trkpt lat="50.58685" lon="5.41548">
        <ele>68.7</ele>
      </trkpt>
      <trkpt lat="50.58696" lon="5.41546">
        <ele>69.4</ele>
      </trkpt>
      <trkpt lat="50.58707" lon="5.4154">
        <ele>70.1</ele>
      </trkpt>
      <trkpt lat="50.58717" lon="5.41533">
        <ele>69.2</ele>
      </trkpt>
      <trkpt lat="50.58727" lon="5.41522">
        <ele>68.1</ele>
      </trkpt>
      <trkpt lat="50.58811" lon="5.41411">
        <ele>69</ele>
      </trkpt>
      <trkpt lat="50.58836" lon="5.41385">
        <ele>68.9</ele>
      </trkpt>
      <trkpt lat="50.58876" lon="5.41347">
        <ele>69.8</ele>
      </trkpt>
      <trkpt lat="50.58886" lon="5.41334">
        <ele>70</ele>
      </trkpt>
      <trkpt lat="50.58893" lon="5.41318">
        <ele>70.2</ele>
      </trkpt>
      <trkpt lat="50.58925" lon="5.41228">
        <ele>72.4</ele>
      </trkpt>
      <trkpt lat="50.5896" lon="5.41139">
        <ele>74.6</ele>
      </trkpt>
      <trkpt lat="50.58966" lon="5.41126">
        <ele>75.1</ele>
      </trkpt>
      <trkpt lat="50.5898" lon="5.41105">
        <ele>77</ele>
      </trkpt>
      <trkpt lat="50.59006" lon="5.41089">
        <ele>77.4</ele>
      </trkpt>
      <trkpt lat="50.59026" lon="5.41086">
        <ele>77</ele>
      </trkpt>
      <trkpt lat="50.59052" lon="5.41092">
        <ele>77.1</ele>
      </trkpt>
      <trkpt lat="50.59144" lon="5.4113">
        <ele>80.2</ele>
      </trkpt>
      <trkpt lat="50.59171" lon="5.4114">
        <ele>80</ele>
      </trkpt>
      <trkpt lat="50.59196" lon="5.41148">
        <ele>80</ele>
      </trkpt>
      <trkpt lat="50.59212" lon="5.41149">
        <ele>80.4</ele>
      </trkpt>
      <trkpt lat="50.5923" lon="5.41146">
        <ele>80.8</ele>
      </trkpt>
      <trkpt lat="50.59303" lon="5.4112">
        <ele>80.3</ele>
      </trkpt>
      <trkpt lat="50.59475" lon="5.41084">
        <ele>81</ele>
      </trkpt>
      <trkpt lat="50.59505" lon="5.41082">
        <ele>81.2</ele>
      </trkpt>
      <trkpt lat="50.59519" lon="5.41083">
        <ele>81.7</ele>
      </trkpt>
      <trkpt lat="50.59552" lon="5.41089">
        <ele>82.9</ele>
      </trkpt>
      <trkpt lat="50.59595" lon="5.411">
        <ele>84.2</ele>
      </trkpt>
      <trkpt lat="50.5964" lon="5.41109">
        <ele>85.2</ele>
      </trkpt>
      <trkpt lat="50.59683" lon="5.41114">
        <ele>85</ele>
      </trkpt>
      <trkpt lat="50.59764" lon="5.41109">
        <ele>85.2</ele>
      </trkpt>
      <trkpt lat="50.59792" lon="5.41104">
        <ele>85.9</ele>
      </trkpt>
      <trkpt lat="50.59808" lon="5.41096">
        <ele>86</ele>
      </trkpt>
      <trkpt lat="50.5982" lon="5.41085">
        <ele>86</ele>
        <extensions>
          <visugpx:TrkExtension xmlns:visugpx="https://www.visugpx.com/editgpx/">
            <visugpx:node>103</visugpx:node>
            </visugpx:TrkExtension>
        </extensions>
      </trkpt>
      <trkpt lat="50.59845" lon="5.41053">
        <ele>86.2</ele>
      </trkpt>
      <trkpt lat="50.59866" lon="5.41014">
        <ele>86</ele>
      </trkpt>
      <trkpt lat="50.59882" lon="5.40966">
        <ele>86.2</ele>
      </trkpt>
      <trkpt lat="50.59927" lon="5.40815">
        <ele>87</ele>
      </trkpt>
      <trkpt lat="50.59979" lon="5.40636">
        <ele>89</ele>
      </trkpt>
      <trkpt lat="50.59999" lon="5.4057">
        <ele>89</ele>
      </trkpt>
      <trkpt lat="50.60008" lon="5.40548">
        <ele>89</ele>
      </trkpt>
      <trkpt lat="50.60025" lon="5.40531">
        <ele>89</ele>
      </trkpt>
      <trkpt lat="50.60155" lon="5.40454">
        <ele>91.8</ele>
      </trkpt>
      <trkpt lat="50.60314" lon="5.40372">
        <ele>95.9</ele>
      </trkpt>
      <trkpt lat="50.60459" lon="5.40287">
        <ele>96</ele>
      </trkpt>
      <trkpt lat="50.60506" lon="5.40241">
        <ele>97.1</ele>
      </trkpt>
      <trkpt lat="50.60528" lon="5.40215">
        <ele>97.5</ele>
      </trkpt>
      <trkpt lat="50.60624" lon="5.40099">
        <ele>98.5</ele>
      </trkpt>
      <trkpt lat="50.60647" lon="5.40056">
        <ele>97.7</ele>
      </trkpt>
      <trkpt lat="50.60748" lon="5.39775">
        <ele>98.7</ele>
      </trkpt>
      <trkpt lat="50.60781" lon="5.39674">
        <ele>99.8</ele>
      </trkpt>
      <trkpt lat="50.60837" lon="5.39488">
        <ele>101.3</ele>
      </trkpt>
      <trkpt lat="50.60865" lon="5.39403">
        <ele>102.8</ele>
      </trkpt>
      <trkpt lat="50.60872" lon="5.39386">
        <ele>103.8</ele>
      </trkpt>
      <trkpt lat="50.60888" lon="5.39362">
        <ele>104.1</ele>
      </trkpt>
      <trkpt lat="50.60937" lon="5.39291">
        <ele>103.1</ele>
      </trkpt>
      <trkpt lat="50.60956" lon="5.39267">
        <ele>103.5</ele>
      </trkpt>
      <trkpt lat="50.6097" lon="5.39253">
        <ele>103.8</ele>
      </trkpt>
      <trkpt lat="50.60986" lon="5.3924">
        <ele>103.9</ele>
      </trkpt>
      <trkpt lat="50.61021" lon="5.39222">
        <ele>105</ele>
      </trkpt>
      <trkpt lat="50.61077" lon="5.39211">
        <ele>105.5</ele>
      </trkpt>
      <trkpt lat="50.61159" lon="5.392">
        <ele>106.7</ele>
      </trkpt>
      <trkpt lat="50.61193" lon="5.3919">
        <ele>109.3</ele>
      </trkpt>
      <trkpt lat="50.61219" lon="5.39176">
        <ele>109.8</ele>
      </trkpt>
      <trkpt lat="50.61239" lon="5.39158">
        <ele>111.9</ele>
      </trkpt>
      <trkpt lat="50.61301" lon="5.39085">
        <ele>111.7</ele>
        <extensions>
          <visugpx:TrkExtension xmlns:visugpx="https://www.visugpx.com/editgpx/">
            <visugpx:node>104</visugpx:node>
            </visugpx:TrkExtension>
        </extensions>
      </trkpt>
      <trkpt lat="50.61361" lon="5.39008">
        <ele>113.3</ele>
      </trkpt>
      <trkpt lat="50.61389" lon="5.38976">
        <ele>114.7</ele>
      </trkpt>
      <trkpt lat="50.61409" lon="5.38958">
        <ele>117.5</ele>
      </trkpt>
      <trkpt lat="50.6144" lon="5.38936">
        <ele>115.7</ele>
      </trkpt>
      <trkpt lat="50.61452" lon="5.38931">
        <ele>116.7</ele>
      </trkpt>
      <trkpt lat="50.6147" lon="5.38927">
        <ele>118.8</ele>
      </trkpt>
      <trkpt lat="50.61484" lon="5.38929">
        <ele>118.7</ele>
      </trkpt>
      <trkpt lat="50.61499" lon="5.38936">
        <ele>117.8</ele>
      </trkpt>
      <trkpt lat="50.61515" lon="5.38948">
        <ele>118.7</ele>
      </trkpt>
      <trkpt lat="50.61566" lon="5.38996">
        <ele>121.8</ele>
      </trkpt>
      <trkpt lat="50.6158" lon="5.39007">
        <ele>121.6</ele>
      </trkpt>
      <trkpt lat="50.61619" lon="5.39032">
        <ele>122</ele>
      </trkpt>
      <trkpt lat="50.61664" lon="5.39064">
        <ele>121.7</ele>
      </trkpt>
      <trkpt lat="50.61698" lon="5.39092">
        <ele>122.7</ele>
      </trkpt>
      <trkpt lat="50.61711" lon="5.39106">
        <ele>123.5</ele>
      </trkpt>
      <trkpt lat="50.61726" lon="5.39122">
        <ele>123.5</ele>
      </trkpt>
      <trkpt lat="50.61769" lon="5.39181">
        <ele>124.8</ele>
      </trkpt>
      <trkpt lat="50.61839" lon="5.39281">
        <ele>125.6</ele>
      </trkpt>
      <trkpt lat="50.61895" lon="5.39364">
        <ele>127.8</ele>
      </trkpt>
      <trkpt lat="50.61911" lon="5.39384">
        <ele>128.1</ele>
      </trkpt>
      <trkpt lat="50.61923" lon="5.39397">
        <ele>128.6</ele>
      </trkpt>
      <trkpt lat="50.61978" lon="5.39446">
        <ele>129.7</ele>
      </trkpt>
      <trkpt lat="50.62091" lon="5.39556">
        <ele>134.1</ele>
      </trkpt>
      <trkpt lat="50.62148" lon="5.39603">
        <ele>136</ele>
      </trkpt>
      <trkpt lat="50.62159" lon="5.39609">
        <ele>136.1</ele>
      </trkpt>
      <trkpt lat="50.62171" lon="5.39613">
        <ele>136.1</ele>
      </trkpt>
      <trkpt lat="50.62184" lon="5.39614">
        <ele>136.2</ele>
      </trkpt>
      <trkpt lat="50.62436" lon="5.39608">
        <ele>144.3</ele>
        <extensions>
          <visugpx:TrkExtension xmlns:visugpx="https://www.visugpx.com/editgpx/">
            <visugpx:node>105</visugpx:node>
            </visugpx:TrkExtension>
        </extensions>
      </trkpt>
      <trkpt lat="50.62501" lon="5.39649">
        <ele>144.6</ele>
        <extensions>
          <visugpx:TrkExtension xmlns:visugpx="https://www.visugpx.com/editgpx/">
            <visugpx:node>78</visugpx:node>
            </visugpx:TrkExtension>
        </extensions>
      </trkpt>
      <trkpt lat="50.62512" lon="5.39694">
        <ele>146.5</ele>
      </trkpt>
      <trkpt lat="50.62517" lon="5.39724">
        <ele>147.2</ele>
      </trkpt>
      <trkpt lat="50.62515" lon="5.39762">
        <ele>148.8</ele>
      </trkpt>
      <trkpt lat="50.62512" lon="5.39784">
        <ele>149.9</ele>
        <extensions>
          <visugpx:TrkExtension xmlns:visugpx="https://www.visugpx.com/editgpx/">
            <visugpx:node>67</visugpx:node>
            </visugpx:TrkExtension>
        </extensions>
      </trkpt>
      <trkpt lat="50.62512" lon="5.3979">
        <ele>150.5</ele>
      </trkpt>
      <trkpt lat="50.62481" lon="5.39759">
        <ele>152.8</ele>
      </trkpt>
      <trkpt lat="50.62468" lon="5.39736">
        <ele>153.7</ele>
      </trkpt>
      <trkpt lat="50.62425" lon="5.39781">
        <ele>153.3</ele>
        <extensions>
          <visugpx:TrkExtension xmlns:visugpx="https://www.visugpx.com/editgpx/">
            <visugpx:node>68</visugpx:node>
            </visugpx:TrkExtension>
        </extensions>
      </trkpt>
      <trkpt lat="50.6242" lon="5.39787">
        <ele>153.1</ele>
        <extensions>
          <visugpx:TrkExtension xmlns:visugpx="https://www.visugpx.com/editgpx/">
            <visugpx:node>7</visugpx:node>
            </visugpx:TrkExtension>
        </extensions>
      </trkpt>
      <trkpt lat="50.62419" lon="5.39784">
        <ele>153.1</ele>
      </trkpt>
      <trkpt lat="50.6242" lon="5.39787">
        <ele>153.1</ele>
      </trkpt>
      <trkpt lat="50.62127" lon="5.40088">
        <ele>166.8</ele>
      </trkpt>
      <trkpt lat="50.619" lon="5.40321">
        <ele>173</ele>
      </trkpt>
      <trkpt lat="50.6183" lon="5.40383">
        <ele>171.9</ele>
      </trkpt>
      <trkpt lat="50.61785" lon="5.40423">
        <ele>171.5</ele>
      </trkpt>
      <trkpt lat="50.61764" lon="5.40471">
        <ele>172</ele>
      </trkpt>
      <trkpt lat="50.61759" lon="5.40484">
        <ele>172.1</ele>
      </trkpt>
      <trkpt lat="50.61702" lon="5.40509">
        <ele>174.6</ele>
      </trkpt>
      <trkpt lat="50.61692" lon="5.40512">
        <ele>174.4</ele>
      </trkpt>
      <trkpt lat="50.61618" lon="5.4054">
        <ele>176.2</ele>
      </trkpt>
      <trkpt lat="50.616" lon="5.40547">
        <ele>178.7</ele>
      </trkpt>
      <trkpt lat="50.61589" lon="5.40563">
        <ele>179</ele>
      </trkpt>
      <trkpt lat="50.61584" lon="5.40588">
        <ele>179.2</ele>
      </trkpt>
      <trkpt lat="50.61584" lon="5.4059">
        <ele>179.2</ele>
      </trkpt>
      <trkpt lat="50.61609" lon="5.40685">
        <ele>180.1</ele>
      </trkpt>
      <trkpt lat="50.61758" lon="5.41225">
        <ele>185</ele>
      </trkpt>
      <trkpt lat="50.61869" lon="5.41544">
        <ele>186.7</ele>
      </trkpt>
      <trkpt lat="50.61921" lon="5.41688">
        <ele>187</ele>
      </trkpt>
      <trkpt lat="50.61922" lon="5.41686">
        <ele>187</ele>
      </trkpt>
      <trkpt lat="50.61921" lon="5.41688">
        <ele>187</ele>
      </trkpt>
      <trkpt lat="50.61914" lon="5.41705">
        <ele>187</ele>
      </trkpt>
      <trkpt lat="50.61907" lon="5.41726">
        <ele>187.1</ele>
      </trkpt>
      <trkpt lat="50.61901" lon="5.41766">
        <ele>188</ele>
      </trkpt>
      <trkpt lat="50.61898" lon="5.41811">
        <ele>188</ele>
      </trkpt>
      <trkpt lat="50.6189" lon="5.41902">
        <ele>188</ele>
      </trkpt>
      <trkpt lat="50.61886" lon="5.41965">
        <ele>187.3</ele>
      </trkpt>
      <trkpt lat="50.61893" lon="5.4203">
        <ele>187.1</ele>
      </trkpt>
      <trkpt lat="50.61901" lon="5.42134">
        <ele>187.4</ele>
      </trkpt>
      <trkpt lat="50.61904" lon="5.42249">
        <ele>189.5</ele>
      </trkpt>
      <trkpt lat="50.619" lon="5.42279">
        <ele>190</ele>
      </trkpt>
      <trkpt lat="50.61883" lon="5.42318">
        <ele>190.6</ele>
      </trkpt>
      <trkpt lat="50.61827" lon="5.4245">
        <ele>193.2</ele>
      </trkpt>
      <trkpt lat="50.61814" lon="5.42487">
        <ele>192.9</ele>
      </trkpt>
      <trkpt lat="50.61811" lon="5.42506">
        <ele>192.4</ele>
      </trkpt>
      <trkpt lat="50.61807" lon="5.42542">
        <ele>191.6</ele>
      </trkpt>
      <trkpt lat="50.61807" lon="5.42567">
        <ele>190.8</ele>
      </trkpt>
      <trkpt lat="50.61812" lon="5.42596">
        <ele>190.3</ele>
      </trkpt>
      <trkpt lat="50.61818" lon="5.4263">
        <ele>188.8</ele>
      </trkpt>
      <trkpt lat="50.61817" lon="5.42669">
        <ele>187.1</ele>
      </trkpt>
      <trkpt lat="50.6181" lon="5.42716">
        <ele>185.8</ele>
      </trkpt>
      <trkpt lat="50.61801" lon="5.42753">
        <ele>185.5</ele>
      </trkpt>
      <trkpt lat="50.61793" lon="5.4278">
        <ele>185.4</ele>
      </trkpt>
      <trkpt lat="50.61772" lon="5.42834">
        <ele>188.8</ele>
      </trkpt>
      <trkpt lat="50.61767" lon="5.42855">
        <ele>189.6</ele>
      </trkpt>
      <trkpt lat="50.61766" lon="5.42873">
        <ele>189.7</ele>
      </trkpt>
      <trkpt lat="50.61769" lon="5.4288">
        <ele>190.1</ele>
      </trkpt>
      <trkpt lat="50.61772" lon="5.4289">
        <ele>190.3</ele>
      </trkpt>
      <trkpt lat="50.61789" lon="5.42912">
        <ele>191.4</ele>
      </trkpt>
      <trkpt lat="50.61813" lon="5.42936">
        <ele>192.2</ele>
      </trkpt>
      <trkpt lat="50.61834" lon="5.42957">
        <ele>192.6</ele>
      </trkpt>
      <trkpt lat="50.61956" lon="5.43128">
        <ele>192.6</ele>
      </trkpt>
      <trkpt lat="50.61988" lon="5.43156">
        <ele>193.2</ele>
      </trkpt>
      <trkpt lat="50.6203" lon="5.4318">
        <ele>192.5</ele>
      </trkpt>
      <trkpt lat="50.62061" lon="5.43207">
        <ele>192.2</ele>
      </trkpt>
      <trkpt lat="50.62064" lon="5.4321">
        <ele>192.3</ele>
      </trkpt>
      <trkpt lat="50.62146" lon="5.43301">
        <ele>194.4</ele>
      </trkpt>
      <trkpt lat="50.6215" lon="5.43306">
        <ele>194.4</ele>
      </trkpt>
      <trkpt lat="50.62156" lon="5.43323">
        <ele>193.6</ele>
      </trkpt>
      <trkpt lat="50.62181" lon="5.43389">
        <ele>192</ele>
      </trkpt>
      <trkpt lat="50.62193" lon="5.43423">
        <ele>190.9</ele>
      </trkpt>
      <trkpt lat="50.62199" lon="5.4344">
        <ele>191.2</ele>
      </trkpt>
      <trkpt lat="50.62209" lon="5.43466">
        <ele>191.5</ele>
      </trkpt>
      <trkpt lat="50.62211" lon="5.43472">
        <ele>191.6</ele>
      </trkpt>
      <trkpt lat="50.62208" lon="5.43476">
        <ele>191.3</ele>
      </trkpt>
      <trkpt lat="50.62205" lon="5.43487">
        <ele>190.5</ele>
      </trkpt>
      <trkpt lat="50.62204" lon="5.43493">
        <ele>190.1</ele>
      </trkpt>
      <trkpt lat="50.62205" lon="5.43498">
        <ele>189.9</ele>
      </trkpt>
      <trkpt lat="50.62211" lon="5.4351">
        <ele>190</ele>
      </trkpt>
      <trkpt lat="50.62214" lon="5.43513">
        <ele>190.1</ele>
      </trkpt>
      <trkpt lat="50.62219" lon="5.43514">
        <ele>190.3</ele>
      </trkpt>
      <trkpt lat="50.62223" lon="5.43513">
        <ele>190.5</ele>
      </trkpt>
      <trkpt lat="50.62227" lon="5.4351">
        <ele>190.7</ele>
      </trkpt>
      <trkpt lat="50.62237" lon="5.43539">
        <ele>190.3</ele>
      </trkpt>
      <trkpt lat="50.6225" lon="5.4357">
        <ele>189</ele>
      </trkpt>
      <trkpt lat="50.6226" lon="5.43594">
        <ele>188.2</ele>
      </trkpt>
      <trkpt lat="50.62272" lon="5.43624">
        <ele>186.9</ele>
      </trkpt>
      <trkpt lat="50.62329" lon="5.43781">
        <ele>182.8</ele>
      </trkpt>
      <trkpt lat="50.62371" lon="5.4398">
        <ele>186.1</ele>
      </trkpt>
      <trkpt lat="50.62372" lon="5.43982">
        <ele>186.1</ele>
      </trkpt>
      <trkpt lat="50.62369" lon="5.44004">
        <ele>186.3</ele>
      </trkpt>
      <trkpt lat="50.62368" lon="5.44012">
        <ele>186.2</ele>
      </trkpt>
      <trkpt lat="50.62334" lon="5.44074">
        <ele>186</ele>
      </trkpt>
      <trkpt lat="50.62311" lon="5.44117">
        <ele>186.4</ele>
      </trkpt>
      <trkpt lat="50.62305" lon="5.44139">
        <ele>187</ele>
      </trkpt>
      <trkpt lat="50.62303" lon="5.44149">
        <ele>186.9</ele>
      </trkpt>
      <trkpt lat="50.62306" lon="5.4419">
        <ele>187</ele>
      </trkpt>
      <trkpt lat="50.62307" lon="5.44204">
        <ele>187.4</ele>
      </trkpt>
      <trkpt lat="50.62324" lon="5.44275">
        <ele>189.2</ele>
      </trkpt>
      <trkpt lat="50.62335" lon="5.44334">
        <ele>189.1</ele>
      </trkpt>
      <trkpt lat="50.62347" lon="5.44415">
        <ele>190.4</ele>
      </trkpt>
      <trkpt lat="50.62349" lon="5.44438">
        <ele>190.6</ele>
      </trkpt>
      <trkpt lat="50.62349" lon="5.4445">
        <ele>190.8</ele>
      </trkpt>
      <trkpt lat="50.62353" lon="5.44523">
        <ele>191.7</ele>
      </trkpt>
      <trkpt lat="50.62351" lon="5.44607">
        <ele>192.4</ele>
      </trkpt>
      <trkpt lat="50.62341" lon="5.4469">
        <ele>192</ele>
      </trkpt>
      <trkpt lat="50.62334" lon="5.44762">
        <ele>191</ele>
        <extensions>
          <visugpx:TrkExtension xmlns:visugpx="https://www.visugpx.com/editgpx/">
            <visugpx:node>1</visugpx:node>
            </visugpx:TrkExtension>
        </extensions>
      </trkpt>
    </trkseg>
  </trk>
</gpx>